DK5BM-6 Weather Reports


Display with metric or nautical units.
time (UTC)temp
F
wind
direction
speed
MPH
gust
MPH
rain 1hr
in
rain 24hr
in
rain mn
in
humidity
%
barometer
mb
20210128054621 36 135 2.0 8.0 0.00 0.00 0.00 91 986.9
20210128054532 36 134 2.0 8.0 0.00 0.00 0.00 91 987.3
20210128054432 36 130 2.0 8.0 0.00 0.00 0.00 91 987.2
20210128054325 36 129 4.0 8.0 0.00 0.00 0.00 91 986.9
20210128054219 36 134 3.0 8.0 0.00 0.00 0.00 91 987.0
20210128054121 36 130 4.0 7.0 0.00 0.00 0.00 91 987.1
20210128054028 35 138 3.0 8.0 0.00 0.00 0.00 91 987.1
20210128053918 35 142 2.0 8.0 0.00 0.00 0.00 91 987.2
20210128053819 35 143 2.0 8.0 0.00 0.00 0.00 91 987.1
20210128053718 35 143 2.0 8.0 0.00 0.00 0.00 91 987.0
20210128053619 35 142 2.0 8.0 0.00 0.00 0.00 91 987.1
20210128053527 35 141 2.0 8.0 0.00 0.00 0.00 91 987.2
20210128053418 35 142 2.0 8.0 0.00 0.00 0.00 91 987.2
20210128053318 35 143 2.0 8.0 0.00 0.00 0.00 91 986.9
20210128053218 35 139 2.0 8.0 0.00 0.00 0.00 91 987.1
20210128053137 35 134 5.0 8.0 0.00 0.00 0.00 91 987.2
20210128053032 35 127 5.0 8.0 0.00 0.00 0.00 91 987.3
20210128052923 35 123 2.0 7.0 0.00 0.00 0.00 91 987.3
20210128052822 35 121 3.0 7.0 0.00 0.00 0.00 91 987.3
20210128052722 35 121 5.0 7.0 0.00 0.00 0.00 91 987.1
20210128052618 35 121 4.0 7.0 0.00 0.00 0.00 91 987.3
20210128052530 35 122 4.0 7.0 0.00 0.00 0.00 91 987.2
20210128052419 35 126 3.0 7.0 0.00 0.00 0.00 91 987.2
20210128052318 35 126 2.0 7.0 0.00 0.00 0.00 91 987.3
20210128052219 35 127 2.0 7.0 0.00 0.00 0.00 91 987.2
20210128052119 35 127 2.0 7.0 0.00 0.00 0.00 91 987.4
20210128052029 35 132 2.0 7.0 0.00 0.00 0.00 91 987.4
20210128051920 35 133 3.0 7.0 0.00 0.00 0.00 91 987.2
20210128051821 35 137 2.0 7.0 0.00 0.00 0.00 92 987.3
20210128051723 35 134 2.0 7.0 0.00 0.00 0.00 91 987.5
20210128051623 35 137 2.0 7.0 0.00 0.00 0.00 92 987.4
20210128051524 35 135 1.0 7.0 0.00 0.00 0.00 92 987.4
20210128051418 35 136 1.0 7.0 0.00 0.00 0.00 91 987.4
20210128051323 35 140 1.0 7.0 0.00 0.00 0.00 91 987.3
20210128051218 35 140 2.0 7.0 0.00 0.00 0.00 92 987.3
20210128051127 35 147 2.0 6.0 0.00 0.00 0.00 92 987.6
20210128051028 35 149 3.0 6.0 0.00 0.00 0.00 92 987.5
20210128050919 35 151 2.0 6.0 0.00 0.00 0.00 92 987.8
20210128050820 35 154 2.0 6.0 0.00 0.00 0.00 92 987.8
20210128050725 35 154 2.0 6.0 0.00 0.00 0.00 92 987.8
20210128050625 35 153 0.0 6.0 0.00 0.00 0.00 92 987.8
20210128050536 35 151 2.0 6.0 0.00 0.00 0.00 92 988.0
20210128050425 35 145 4.0 6.0 0.00 0.00 0.00 92 988.0
20210128050320 35 142 2.0 6.0 0.00 0.00 0.00 92 987.9
20210128050220 35 144 2.0 6.0 0.00 0.00 0.00 92 988.0
20210128050119 35 139 2.0 6.0 0.00 0.00 0.00 92 988.0
20210128050048 35 134 4.0 6.0 0.00 0.00 0.00 92 988.0
20210128045918 35 134 0.0 6.0 0.00 0.00 0.00 92 988.0
20210128045819 35 133 2.0 6.0 0.00 0.00 0.00 92 988.2
20210128045718 35 129 1.0 6.0 0.00 0.00 0.00 92 988.1
20210128045622 35 125 3.0 6.0 0.00 0.00 0.00 92 988.1
20210128045530 35 124 2.0 6.0 0.00 0.00 0.00 92 988.0
20210128045425 35 123 2.0 6.0 0.00 0.00 0.00 92 988.0
20210128045319 35 121 3.0 6.0 0.00 0.00 0.00 92 988.1
20210128045224 35 122 3.0 6.0 0.00 0.00 0.00 92 988.2
20210128045125 35 125 2.0 4.0 0.00 0.00 0.00 92 988.2
20210128045031 35 130 2.0 6.0 0.00 0.00 0.00 92 988.0
20210128044921 35 127 2.0 6.0 0.00 0.00 0.00 92 988.1
20210128044818 35 127 1.0 6.0 0.00 0.00 0.00 92 988.0
20210128044718 35 127 2.0 6.0 0.00 0.00 0.00 92 988.0
20210128044619 35 129 2.0 6.0 0.00 0.00 0.00 92 988.1
20210128044528 35 129 2.0 6.0 0.00 0.00 0.00 92 988.0
20210128044420 35 127 2.0 6.0 0.00 0.00 0.00 92 988.2
20210128044323 35 124 1.0 7.0 0.00 0.00 0.00 92 988.1
20210128044218 35 121 3.0 7.0 0.00 0.00 0.00 91 988.3
20210128044118 35 118 2.0 7.0 0.00 0.00 0.00 91 988.5
20210128044033 35 111 3.0 7.0 0.00 0.00 0.00 91 988.4
20210128043919 35 108 3.0 7.0 0.00 0.00 0.00 92 988.4
20210128043819 35 104 2.0 7.0 0.00 0.00 0.00 92 988.6
20210128043718 35 105 0.0 7.0 0.00 0.00 0.00 92 988.4
20210128043623 35 105 0.0 7.0 0.00 0.00 0.00 92 988.5
20210128043528 35 103 1.0 7.0 0.00 0.00 0.00 92 988.4
20210128043417 35 104 2.0 7.0 0.00 0.00 0.00 91 988.6
20210128043322 35 105 4.0 7.0 0.00 0.00 0.00 91 988.6
20210128043220 35 107 2.0 6.0 0.00 0.00 0.00 92 988.6
20210128043127 35 107 2.0 6.0 0.00 0.00 0.00 92 988.4
20210128043056 35 110 2.0 6.0 0.00 0.00 0.00 92 988.6
20210128042918 35 112 1.0 6.0 0.00 0.00 0.00 92 988.4
20210128042823 35 112 0.0 6.0 0.00 0.00 0.00 92 988.5
20210128042724 35 112 2.0 6.0 0.00 0.00 0.00 93 988.5
20210128042618 35 113 1.0 4.0 0.00 0.00 0.00 93 988.5
20210128042521 35 116 1.0 4.0 0.00 0.00 0.00 93 988.6
20210128042419 35 119 0.0 4.0 0.00 0.00 0.00 93 988.7
20210128042320 35 120 0.0 4.0 0.00 0.00 0.00 93 988.6
20210128042218 35 123 2.0 4.0 0.00 0.00 0.00 93 988.5
20210128042122 35 125 2.0 4.0 0.00 0.00 0.00 93 988.4
20210128042030 35 127 2.0 4.0 0.00 0.00 0.00 93 988.6
20210128041919 35 128 2.0 4.0 0.00 0.00 0.00 93 988.7
20210128041818 35 129 2.0 4.0 0.00 0.00 0.00 93 988.7
20210128041720 35 130 0.0 4.0 0.00 0.00 0.00 93 988.7
20210128041622 35 128 2.0 4.0 0.00 0.00 0.00 94 988.8
20210128041541 35 125 2.0 4.0 0.00 0.00 0.00 94 989.0
20210128041422 35 122 2.0 4.0 0.00 0.00 0.00 94 988.8
20210128041326 35 119 0.0 4.0 0.00 0.00 0.00 94 988.9
20210128041220 35 120 2.0 4.0 0.00 0.00 0.00 94 988.7
20210128041118 35 120 1.0 4.0 0.00 0.00 0.00 94 988.8
20210128041025 35 121 0.0 4.0 0.00 0.00 0.00 94 989.0
20210128040918 35 124 1.0 4.0 0.00 0.00 0.00 94 988.9
20210128040818 35 122 0.0 4.0 0.00 0.00 0.00 94 989.0
20210128040718 35 122 0.0 4.0 0.00 0.00 0.00 94 988.9
20210128040620 35 121 1.0 4.0 0.00 0.00 0.00 94 989.1
20210128040524 35 121 2.0 4.0 0.00 0.00 0.00 94 988.9
20210128040419 35 121 1.0 4.0 0.00 0.00 0.00 94 989.0
20210128040320 35 122 2.0 4.0 0.00 0.00 0.00 94 989.0
20210128040219 35 120 2.0 4.0 0.00 0.00 0.00 94 988.8
20210128040119 35 118 2.0 4.0 0.00 0.00 0.00 94 989.0
20210128040025 35 115 2.0 4.0 0.00 0.00 0.00 95 988.9
20210128035919 35 112 2.0 4.0 0.00 0.00 0.00 95 988.9
20210128035818 35 112 2.0 4.0 0.00 0.00 0.00 95 989.1
20210128035719 35 112 0.0 4.0 0.00 0.00 0.00 95 989.1
20210128035619 35 112 2.0 4.0 0.00 0.00 0.00 95 989.2
20210128035527 35 112 0.0 4.0 0.00 0.00 0.00 95 989.2
20210128035421 35 112 0.0 4.0 0.00 0.00 0.00 95 989.3
20210128035320 35 112 0.0 4.0 0.00 0.00 0.00 95 989.4
20210128035219 35 112 0.0 4.0 0.00 0.00 0.00 95 989.3
20210128035121 35 112 2.0 4.0 0.00 0.00 0.00 95 989.3
20210128035039 35 112 2.0 4.0 0.00 0.00 0.00 95 989.6
20210128034919 35 112 1.0 4.0 0.00 0.00 0.00 95 989.5
20210128034824 35 113 1.0 4.0 0.00 0.00 0.00 95 989.6
20210128034721 35 115 2.0 4.0 0.00 0.00 0.00 95 989.8
20210128034618 35 117 2.0 4.0 0.00 0.00 0.00 95 989.4
20210128034523 35 118 2.0 4.0 0.00 0.00 0.00 95 989.9
20210128034424 35 120 1.0 4.0 0.00 0.00 0.00 94 989.7
20210128034318 35 123 1.0 4.0 0.00 0.00 0.00 94 989.6
20210128034219 35 126 1.0 4.0 0.00 0.00 0.00 94 989.8
20210128034125 35 128 1.0 4.0 0.00 0.00 0.00 94 989.8
20210128034030 35 130 2.0 4.0 0.00 0.00 0.00 94 989.8
20210128033920 35 130 0.0 4.0 0.00 0.00 0.00 94 989.7
20210128033820 35 127 0.0 4.0 0.00 0.00 0.00 94 989.6
20210128033724 35 124 1.0 4.0 0.00 0.00 0.00 94 989.8
20210128033620 35 124 1.0 4.0 0.00 0.00 0.00 94 989.8
20210128033521 35 116 1.0 6.0 0.00 0.00 0.00 94 989.9
20210128033418 35 115 2.0 6.0 0.00 0.00 0.00 94 989.8
20210128033320 35 113 2.0 7.0 0.00 0.00 0.00 94 989.8
20210128033218 35 116 2.0 7.0 0.00 0.00 0.00 94 989.8
20210128033119 35 116 1.0 9.0 0.00 0.00 0.00 94 989.8
20210128033029 35 119 2.0 9.0 0.00 0.00 0.00 94 989.9
20210128032918 35 119 3.0 9.0 0.00 0.00 0.00 94 989.8
20210128032820 35 117 2.0 9.0 0.00 0.00 0.00 93 989.9
20210128032717 35 119 0.0 9.0 0.00 0.00 0.00 93 989.9
20210128032620 35 118 2.0 9.0 0.00 0.00 0.00 93 989.9
20210128032524 35 122 3.0 9.0 0.00 0.00 0.00 93 989.9
20210128032418 35 123 3.0 9.0 0.00 0.00 0.00 93 989.9
20210128032321 35 123 1.0 9.0 0.00 0.00 0.00 93 989.9
20210128032225 35 119 4.0 9.0 0.00 0.00 0.00 93 989.7
20210128032118 35 121 3.0 8.0 0.00 0.00 0.00 93 990.0
20210128032024 35 119 3.0 8.0 0.00 0.00 0.00 93 989.8
20210128031920 35 122 3.0 8.0 0.00 0.00 0.00 93 990.1
20210128031818 35 128 3.0 8.0 0.00 0.00 0.00 93 990.2
20210128031718 35 131 3.0 4.0 0.00 0.00 0.00 93 990.1
20210128031620 35 141 3.0 4.0 0.00 0.00 0.00 93 990.0
20210128031532 35 150 3.0 4.0 0.00 0.00 0.00 93 990.1
20210128031418 35 165 1.0 4.0 0.00 0.00 0.00 93 990.0
20210128031321 35 174 3.0 4.0 0.00 0.00 0.00 93 990.2
20210128031221 35 187 1.0 4.0 0.00 0.00 0.00 93 990.2
20210128031122 35 194 1.0 6.0 0.00 0.00 0.00 93 990.3
20210128031028 35 199 1.0 6.0 0.00 0.00 0.00 93 990.2
20210128030926 35 202 1.0 6.0 0.00 0.00 0.00 93 990.1
20210128030819 35 206 1.0 6.0 0.00 0.00 0.00 93 990.2
20210128030718 35 209 0.0 6.0 0.00 0.00 0.00 93 990.0
20210128030619 35 211 2.0 6.0 0.00 0.00 0.00 93 990.2
20210128030524 35 212 2.0 6.0 0.00 0.00 0.00 93 990.1
20210128030419 35 214 1.0 6.0 0.00 0.00 0.00 93 990.3
20210128030318 35 215 2.0 6.0 0.00 0.00 0.00 93 990.2
20210128030220 35 217 3.0 6.0 0.00 0.00 0.00 93 990.2
20210128030119 35 222 2.0 4.0 0.00 0.00 0.00 93 990.3
20210128030049 35 225 2.0 4.0 0.00 0.00 0.00 93 990.2
20210128025923 35 213 2.0 4.0 0.00 0.00 0.00 93 990.2
20210128025824 35 200 1.0 4.0 0.00 0.00 0.00 93 990.1
20210128025728 35 191 1.0 4.0 0.00 0.00 0.00 93 990.0
20210128025635 35 184 1.0 4.0 0.00 0.00 0.00 93 990.3
20210128025531 35 177 1.0 4.0 0.00 0.00 0.00 93 990.3
20210128025418 35 173 0.0 4.0 0.00 0.00 0.00 93 990.4
20210128025319 35 171 0.0 4.0 0.00 0.00 0.00 93 990.5
20210128025218 35 170 0.0 4.0 0.00 0.00 0.00 92 990.3
20210128025118 35 164 1.0 4.0 0.00 0.00 0.00 92 990.4
20210128025030 35 158 2.0 4.0 0.00 0.00 0.00 93 990.3
20210128024935 35 158 2.0 4.0 0.00 0.00 0.00 93 990.3
20210128024839 35 158 2.0 2.0 0.00 0.00 0.00 93 990.3
20210128024818 35 158 1.0 2.0 0.00 0.00 0.00 93 990.3
20210128024635 35 158 0.0 4.0 0.00 0.00 0.00 93 990.4
20210128024548 35 158 0.0 4.0 0.00 0.00 0.00 93 990.3
20210128024419 35 158 0.0 4.0 0.00 0.00 0.00 93 990.6
20210128024327 35 158 1.0 4.0 0.00 0.00 0.00 93 990.3
20210128024222 35 157 1.0 6.0 0.00 0.00 0.00 93 990.4
20210128024118 35 157 1.0 6.0 0.00 0.00 0.00 93 990.3
20210128024034 35 155 0.0 6.0 0.00 0.00 0.00 93 990.6
20210128023921 35 144 0.0 7.0 0.00 0.00 0.00 93 990.4
20210128023818 35 140 1.0 7.0 0.00 0.00 0.00 93 990.4
20210128023720 35 137 2.0 7.0 0.00 0.00 0.00 92 990.4
20210128023619 35 133 1.0 7.0 0.00 0.00 0.00 92 990.3
20210128023543 35 130 3.0 7.0 0.00 0.00 0.00 93 990.4
20210128023423 35 126 1.0 7.0 0.00 0.00 0.00 93 990.6
20210128023317 35 123 2.0 7.0 0.00 0.00 0.00 93 990.6
20210128023222 35 118 4.0 7.0 0.00 0.00 0.00 93 990.4
20210128023120 35 111 3.0 7.0 0.00 0.00 0.00 93 990.4
20210128023049 35 106 3.0 7.0 0.00 0.00 0.00 93 990.6
20210128022918 35 112 4.0 7.0 0.00 0.00 0.00 93 990.6
20210128022819 35 112 0.0 2.0 0.00 0.00 0.00 93 990.6
20210128022719 35 111 2.0 4.0 0.00 0.00 0.00 93 990.6
20210128022618 35 109 1.0 4.0 0.00 0.00 0.00 93 990.7
20210128022533 35 109 0.0 4.0 0.00 0.00 0.00 93 990.8
20210128022419 35 108 0.0 4.0 0.00 0.00 0.00 93 990.8
20210128022325 35 108 2.0 4.0 0.00 0.00 0.00 93 990.8
20210128022218 35 108 2.0 4.0 0.00 0.00 0.00 93 990.8
20210128022120 35 107 2.0 4.0 0.00 0.00 0.00 93 990.6
20210128022032 35 104 1.0 4.0 0.00 0.00 0.00 93 990.4
20210128021918 35 101 2.0 4.0 0.00 0.00 0.00 93 990.8
20210128021818 34 98 2.0 4.0 0.00 0.00 0.00 93 990.8
20210128021720 34 90 1.0 2.0 0.00 0.00 0.00 93 990.6
20210128021618 34 90 0.0 2.0 0.00 0.00 0.00 94 990.8
20210128021526 34 90 0.0 2.0 0.00 0.00 0.00 93 990.9
20210128021418 34 90 0.0 2.0 0.00 0.00 0.00 93 990.7
20210128021321 34 90 0.0 2.0 0.00 0.00 0.00 93 991.0
20210128021218 34 90 0.0 2.0 0.00 0.00 0.00 93 991.0
20210128021118 34 90 1.0 2.0 0.00 0.00 0.00 93 990.8
20210128021022 34 90 0.0 2.0 0.00 0.00 0.00 93 990.9
20210128020920 34 90 0.0 2.0 0.00 0.00 0.00 93 991.0
20210128020818 34 90 0.0 2.0 0.00 0.00 0.00 93 990.9
20210128020719 34 90 0.0 2.0 0.00 0.00 0.00 93 991.0
20210128020624 34 90 1.0 2.0 0.00 0.00 0.00 93 991.3
20210128020554 34 90 1.0 2.0 0.00 0.00 0.00 93 991.0
20210128020421 34 90 1.0 2.0 0.00 0.00 0.00 93 990.9
20210128020321 34 90 0.0 2.0 0.00 0.00 0.00 93 991.0
20210128020225 34 90 0.0 2.0 0.00 0.00 0.00 93 990.8
20210128020118 34 90 0.0 2.0 0.00 0.00 0.00 93 991.2
20210128020032 34 90 0.0 2.0 0.00 0.00 0.00 93 991.2
20210128015920 34 90 1.0 2.0 0.00 0.00 0.00 93 991.1
20210128015818 34 90 1.0 2.0 0.00 0.00 0.00 93 991.0
20210128015722 34 90 1.0 2.0 0.00 0.00 0.00 93 991.2
20210128015631 34 90 2.0 2.0 0.00 0.00 0.00 93 991.2
20210128015528 34 90 1.0 2.0 0.00 0.00 0.00 93 991.2
20210128015419 34 90 2.0 2.0 0.00 0.00 0.00 93 991.2
20210128015327 34 90 1.0 2.0 0.00 0.00 0.00 93 991.4
20210128015219 34 90 0.0 4.0 0.00 0.00 0.00 93 991.3
20210128015118 34 90 0.0 4.0 0.00 0.00 0.00 93 991.2
20210128015045 34 93 0.0 4.0 0.00 0.00 0.00 93 991.4
20210128014918 34 95 0.0 4.0 0.00 0.00 0.00 93 991.5
20210128014821 34 97 0.0 4.0 0.00 0.00 0.00 93 991.4
20210128014720 34 97 0.0 4.0 0.00 0.00 0.00 93 991.4
20210128014639 34 97 0.0 4.0 0.00 0.00 0.00 93 991.5
20210128014523 34 97 1.0 4.0 0.00 0.00 0.00 93 991.4
20210128014418 34 98 1.0 4.0 0.00 0.00 0.00 93 991.5
20210128014318 34 100 2.0 4.0 0.00 0.00 0.00 93 991.3
20210128014223 34 105 2.0 4.0 0.00 0.00 0.00 93 991.3
20210128014119 34 112 0.0 2.0 0.00 0.00 0.00 93 991.4
20210128014028 34 112 2.0 2.0 0.00 0.00 0.00 93 991.3
20210128013919 34 112 0.0 2.0 0.00 0.00 0.00 93 991.5
20210128013818 34 112 0.0 2.0 0.00 0.00 0.00 93 991.6
20210128013719 34 112 0.0 2.0 0.00 0.00 0.00 93 991.3
20210128013619 34 112 0.0 2.0 0.00 0.00 0.00 93 991.7
20210128013529 34 112 0.0 2.0 0.00 0.00 0.00 93 991.5
20210128013418 34 112 0.0 2.0 0.00 0.00 0.00 93 991.3
20210128013318 34 112 0.0 2.0 0.00 0.00 0.00 93 991.3
20210128013236 34 112 0.0 2.0 0.00 0.00 0.00 93 991.7
20210128013120 34 112 0.0 2.0 0.00 0.00 0.00 93 991.6
20210128013033 34 112 0.0 2.0 0.00 0.00 0.00 93 991.6
20210128012918 34 112 1.0 2.0 0.00 0.00 0.00 94 991.5
20210128012821 34 112 2.0 2.0 0.00 0.00 0.00 94 991.5
20210128012719 34 0 0.0 0.0 0.00 0.00 0.00 93 991.6
20210128012623 34 0 0.0 0.0 0.00 0.00 0.00 93 991.5
20210128012524 34 0 0.0 0.0 0.00 0.00 0.00 93 991.6
20210128012436 34 0 0.0 0.0 0.00 0.00 0.00 93 991.3
20210128012318 34 0 0.0 0.0 0.00 0.00 0.00 93 991.6
20210128012225 34 0 0.0 0.0 0.00 0.00 0.00 93 991.5
20210128012118 34 112 0.0 2.0 0.00 0.00 0.00 93 991.4
20210128012033 34 111 0.0 2.0 0.00 0.00 0.00 93 991.6
20210128011921 34 111 0.0 2.0 0.00 0.00 0.00 93 991.6
20210128011818 34 111 0.0 2.0 0.00 0.00 0.00 93 991.5
20210128011734 34 111 0.0 2.0 0.00 0.00 0.00 93 991.6
20210128011623 34 111 0.0 2.0 0.00 0.00 0.00 93 991.6
20210128011544 34 111 0.0 2.0 0.00 0.00 0.00 93 991.5
20210128011419 34 111 0.0 2.0 0.00 0.00 0.00 93 991.6
20210128011318 34 111 0.0 2.0 0.00 0.00 0.00 93 991.4
20210128011219 34 111 0.0 2.0 0.00 0.00 0.00 93 991.5
20210128011120 34 112 1.0 2.0 0.00 0.00 0.00 93 991.5
20210128011028 34 0 0.0 0.0 0.00 0.00 0.00 93 991.5
20210128010918 34 0 0.0 0.0 0.00 0.00 0.00 93 991.4
20210128010821 34 0 0.0 0.0 0.00 0.00 0.00 93 991.5
20210128010720 34 0 0.0 0.0 0.00 0.00 0.00 93 991.6
20210128010621 34 0 0.0 0.0 0.00 0.00 0.00 93 991.7
20210128010529 34 0 0.0 0.0 0.00 0.00 0.00 93 991.8
20210128010425 34 0 0.0 0.0 0.00 0.00 0.00 93 991.4
20210128010326 34 0 0.0 0.0 0.00 0.00 0.00 93 991.6
20210128010219 34 0 0.0 0.0 0.00 0.00 0.00 93 991.8
20210128010137 34 135 0.0 2.0 0.00 0.00 0.00 93 991.7
20210128010028 34 135 0.0 2.0 0.00 0.00 0.00 93 991.9
20210128005926 34 135 0.0 2.0 0.00 0.00 0.00 93 991.9
20210128005821 34 135 0.0 2.0 0.00 0.00 0.00 93 991.7
20210128005718 34 135 0.0 2.0 0.00 0.00 0.00 93 991.7
20210128005618 34 135 0.0 2.0 0.00 0.00 0.00 93 991.9
20210128005518 34 135 0.0 4.0 0.00 0.00 0.00 93 991.7
20210128005418 34 135 0.0 4.0 0.00 0.00 0.00 93 991.8
20210128005321 34 135 0.0 4.0 0.00 0.00 0.00 93 991.8
20210128005218 34 135 0.0 4.0 0.00 0.00 0.00 93 991.7
20210128005118 34 135 1.0 4.0 0.00 0.00 0.00 93 991.8
20210128005019 34 135 0.0 4.0 0.00 0.00 0.00 93 991.7
20210128004918 34 135 0.0 4.0 0.00 0.00 0.00 93 991.8
20210128004841 34 135 2.0 4.0 0.00 0.00 0.00 93 991.8
20210128004806 34 135 0.0 4.0 0.00 0.00 0.00 93 991.8
20210128004733 34 135 2.0 4.0 0.00 0.00 0.00 93 991.6
20210128004612 34 135 2.0 4.0 0.00 0.00 0.00 93 992.0
20210128004457 34 135 2.0 4.0 0.00 0.00 0.00 93 991.9
20210128004333 34 135 2.0 4.0 0.00 0.00 0.00 93 991.8
20210128004245 34 135 2.0 4.0 0.00 0.00 0.00 93 991.7
20210128004150 34 135 1.0 4.0 0.00 0.00 0.00 93 991.9
20210128004033 34 135 0.0 4.0 0.00 0.00 0.00 93 991.8
20210128003918 34 135 1.0 4.0 0.00 0.00 0.00 93 991.9
20210128003821 34 135 2.0 4.0 0.00 0.00 0.00 93 992.0
20210128003723 34 135 2.0 4.0 0.00 0.00 0.00 93 991.9
20210128003619 34 135 2.0 4.0 0.00 0.00 0.00 93 992.0
20210128003534 34 135 0.0 4.0 0.00 0.00 0.00 93 991.9
20210128003418 34 135 1.0 4.0 0.00 0.00 0.00 93 992.0
20210128003321 34 135 0.0 4.0 0.00 0.00 0.00 93 991.9
20210128003251 34 135 0.0 4.0 0.00 0.00 0.00 93 991.9
20210128003152 34 135 1.0 4.0 0.00 0.00 0.00 93 992.2
20210128003104 34 135 1.0 4.0 0.00 0.00 0.00 93 992.1
20210128002920 34 135 0.0 2.0 0.00 0.00 0.00 93 991.9
20210128002819 34 135 1.0 2.0 0.00 0.00 0.00 93 991.8
20210128002719 34 135 0.0 2.0 0.00 0.00 0.00 93 992.1
20210128002620 34 135 0.0 2.0 0.00 0.00 0.00 93 991.8
20210128002520 34 135 0.0 2.0 0.00 0.00 0.00 93 992.0
20210128002419 34 135 1.0 2.0 0.00 0.00 0.00 93 992.2
20210128002321 34 130 0.0 2.0 0.00 0.00 0.00 93 991.9
20210128002218 34 130 0.0 2.0 0.00 0.00 0.00 93 992.2
20210128002121 34 130 0.0 2.0 0.00 0.00 0.00 93 991.8
20210128002039 34 131 0.0 2.0 0.00 0.00 0.00 93 992.0
20210128001921 34 129 1.0 2.0 0.00 0.00 0.00 93 992.0
20210128001818 34 127 0.0 2.0 0.00 0.00 0.00 93 992.0
20210128001719 34 127 0.0 2.0 0.00 0.00 0.00 93 991.9
20210128001622 34 127 0.0 2.0 0.00 0.00 0.00 93 992.2
20210128001525 34 127 1.0 2.0 0.00 0.00 0.00 93 992.1
20210128001421 34 128 1.0 2.0 0.00 0.00 0.00 93 991.9
20210128001320 34 127 1.0 4.0 0.00 0.00 0.00 93 992.1
20210128001219 34 128 2.0 4.0 0.00 0.00 0.00 93 992.1
20210128001121 34 128 1.0 4.0 0.00 0.00 0.00 93 992.3
20210128001032 34 127 1.0 4.0 0.00 0.00 0.00 93 992.0
20210128000919 34 128 0.0 4.0 0.00 0.00 0.00 93 992.2
20210128000836 34 129 2.0 4.0 0.00 0.00 0.00 93 992.0
20210128000820 34 130 1.0 4.0 0.00 0.00 0.00 93 992.1
20210128000803 34 131 1.0 4.0 0.00 0.00 0.00 93 992.3
20210128000658 34 131 0.0 4.0 0.00 0.00 0.00 93 992.0
20210128000633 34 130 2.0 4.0 0.00 0.00 0.00 93 992.1
20210128000609 34 135 2.0 2.0 0.00 0.00 0.00 93 992.2
20210128000429 34 135 1.0 2.0 0.00 0.00 0.00 93 992.2
20210128000237 34 135 0.0 2.0 0.00 0.00 0.00 93 992.0
20210128000123 34 135 0.0 2.0 0.00 0.00 0.00 93 991.9
20210127235918 34 135 0.0 2.0 0.00 0.00 0.00 93 992.3
20210127235818 34 135 0.0 4.0 0.00 0.00 0.00 93 991.9
20210127235721 34 135 1.0 4.0 0.00 0.00 0.00 93 992.0
20210127235619 34 135 2.0 4.0 0.00 0.00 0.00 93 992.0
20210127235519 34 135 1.0 4.0 0.00 0.00 0.00 93 992.0
20210127235424 34 135 0.0 4.0 0.00 0.00 0.00 93 992.2
20210127235318 34 135 0.0 4.0 0.00 0.00 0.00 93 992.2
20210127235219 34 135 0.0 4.0 0.00 0.00 0.00 93 992.0
20210127235119 34 135 0.0 4.0 0.00 0.00 0.00 93 992.3
20210127235033 34 135 1.0 4.0 0.00 0.00 0.00 93 992.1
20210127234922 34 135 1.0 4.0 0.00 0.00 0.00 93 992.2
20210127234818 34 135 1.0 4.0 0.00 0.00 0.00 93 992.0
20210127234719 34 135 0.0 4.0 0.00 0.00 0.00 93 991.9
20210127234624 34 135 1.0 4.0 0.00 0.00 0.00 93 992.1
20210127234535 34 135 2.0 4.0 0.00 0.00 0.00 93 992.0
20210127234424 34 170 2.0 4.0 0.00 0.00 0.00 93 992.2
20210127234318 34 181 0.0 2.0 0.00 0.00 0.00 93 992.1
20210127234220 34 181 0.0 2.0 0.00 0.00 0.00 93 992.1
20210127234123 34 181 0.0 2.0 0.00 0.00 0.00 93 992.1
20210127234021 34 181 0.0 2.0 0.00 0.00 0.00 93 992.2
20210127233922 34 181 0.0 2.0 0.00 0.00 0.00 93 992.1
20210127233821 34 181 0.0 2.0 0.00 0.00 0.00 93 992.3
20210127233718 34 181 0.0 2.0 0.00 0.00 0.00 93 992.1
20210127233620 34 181 0.0 2.0 0.00 0.00 0.00 93 992.3
20210127233533 34 181 0.0 2.0 0.00 0.00 0.00 93 992.2
20210127233419 34 181 0.0 2.0 0.00 0.00 0.00 93 992.2
20210127233326 34 181 0.0 2.0 0.00 0.00 0.00 93 992.2
20210127233221 34 181 0.0 2.0 0.00 0.00 0.00 93 992.1
20210127233120 34 181 0.0 2.0 0.00 0.00 0.00 93 992.2
20210127233029 34 181 0.0 2.0 0.00 0.00 0.00 93 992.3
20210127232921 34 181 0.0 2.0 0.00 0.00 0.00 93 992.4
20210127232818 34 181 0.0 2.0 0.00 0.00 0.00 93 992.3
20210127232719 34 0 0.0 0.0 0.00 0.00 0.00 93 992.4
20210127232618 34 0 0.0 0.0 0.00 0.00 0.00 93 992.2
20210127232524 34 0 0.0 0.0 0.00 0.00 0.00 93 992.2
20210127232418 34 0 0.0 0.0 0.00 0.00 0.00 93 992.2
20210127232319 34 0 0.0 0.0 0.00 0.00 0.00 93 992.5
20210127232219 34 0 0.0 0.0 0.00 0.00 0.00 93 992.5
20210127232118 34 0 0.0 0.0 0.00 0.00 0.00 93 992.2
20210127232029 34 0 0.0 0.0 0.00 0.00 0.00 93 992.1
20210127231919 34 0 0.0 0.0 0.00 0.00 0.00 93 992.2
20210127231818 34 0 0.0 0.0 0.00 0.00 0.00 93 992.2
20210127231725 34 0 0.0 0.0 0.00 0.00 0.00 93 992.3
20210127231632 34 0 0.0 0.0 0.00 0.00 0.00 93 992.5
20210127231531 34 0 0.0 0.0 0.00 0.00 0.00 93 992.3
20210127231418 34 0 0.0 0.0 0.00 0.00 0.00 93 992.6
20210127231318 34 0 0.0 0.0 0.00 0.00 0.00 93 992.5
20210127231221 34 0 0.0 0.0 0.00 0.00 0.00 93 992.6
20210127231121 34 0 0.0 0.0 0.00 0.00 0.00 93 992.4
20210127231036 34 0 0.0 0.0 0.00 0.00 0.00 93 992.4
20210127230918 34 0 0.0 0.0 0.00 0.00 0.00 93 992.5
20210127230832 34 0 0.0 0.0 0.00 0.00 0.00 93 992.3
20210127230720 34 0 0.0 0.0 0.00 0.00 0.00 94 992.3
20210127230618 34 0 0.0 0.0 0.00 0.00 0.00 94 992.4
20210127230532 34 0 0.0 0.0 0.00 0.00 0.00 94 992.3
20210127230422 34 0 0.0 0.0 0.00 0.00 0.00 94 992.6
20210127230321 34 0 0.0 0.0 0.00 0.00 0.00 94 992.3
20210127230218 34 0 0.0 0.0 0.00 0.00 0.00 94 992.3
20210127230120 34 0 0.0 0.0 0.00 0.00 0.00 94 992.5
20210127230031 34 0 0.0 0.0 0.00 0.00 0.00 94 992.3
20210127225920 34 0 0.0 0.0 0.00 0.00 0.00 94 992.4
20210127225822 34 0 0.0 0.0 0.00 0.00 0.00 94 992.3
20210127225719 34 0 0.0 0.0 0.00 0.00 0.00 94 992.3
20210127225618 34 0 0.0 0.0 0.00 0.00 0.00 94 992.4
20210127225529 34 0 0.0 0.0 0.00 0.00 0.00 94 992.5
20210127225420 34 0 0.0 0.0 0.00 0.00 0.00 94 992.5
20210127225318 34 0 0.0 0.0 0.00 0.00 0.00 94 992.5
20210127225218 34 0 0.0 0.0 0.00 0.00 0.00 94 992.5
20210127225118 34 0 0.0 0.0 0.00 0.00 0.00 94 992.5
20210127225033 34 0 0.0 0.0 0.00 0.00 0.00 94 992.4
20210127224920 34 0 0.0 0.0 0.00 0.00 0.00 94 992.4
20210127224821 34 0 0.0 0.0 0.00 0.00 0.00 94 992.7
20210127224732 34 0 0.0 0.0 0.00 0.00 0.00 94 992.4
20210127224623 34 0 0.0 0.0 0.00 0.00 0.00 94 992.3
20210127224526 34 0 0.0 0.0 0.00 0.00 0.00 95 992.4
20210127224420 34 0 0.0 0.0 0.00 0.00 0.00 95 992.4
20210127224319 34 0 0.0 0.0 0.00 0.00 0.00 95 992.3
20210127224218 34 0 0.0 0.0 0.00 0.00 0.00 94 992.4
20210127224128 34 0 0.0 0.0 0.00 0.00 0.00 94 992.4
20210127224028 34 0 0.0 0.0 0.00 0.00 0.00 94 992.4
20210127223920 34 0 0.0 0.0 0.00 0.00 0.00 94 992.6
20210127223819 34 0 0.0 0.0 0.00 0.00 0.00 94 992.3
20210127223718 34 181 0.0 2.0 0.00 0.00 0.00 94 992.3
20210127223619 34 181 0.0 2.0 0.00 0.00 0.00 94 992.3
20210127223537 34 181 0.0 2.0 0.00 0.00 0.00 94 992.6
20210127223423 34 181 0.0 2.0 0.00 0.00 0.00 94 992.6
20210127223320 34 181 0.0 2.0 0.00 0.00 0.00 94 992.6
20210127223221 34 181 0.0 2.0 0.00 0.00 0.00 94 992.5
20210127223119 34 181 0.0 2.0 0.00 0.00 0.00 94 992.5
20210127223046 34 181 0.0 2.0 0.00 0.00 0.00 94 992.5
20210127222918 34 181 0.0 2.0 0.00 0.00 0.00 94 992.4
20210127222824 34 181 0.0 2.0 0.00 0.00 0.00 94 992.7
20210127222719 34 181 1.0 2.0 0.00 0.00 0.00 95 992.8
20210127222619 34 181 2.0 2.0 0.00 0.00 0.00 95 992.4
20210127222526 34 181 0.0 2.0 0.00 0.00 0.00 95 992.5
20210127222418 34 181 0.0 2.0 0.00 0.00 0.00 95 992.4
20210127222320 33 181 0.0 2.0 0.00 0.00 0.00 95 992.5
20210127222219 34 181 1.0 2.0 0.00 0.00 0.00 95 992.5
20210127222121 33 181 1.0 2.0 0.00 0.00 0.00 95 992.7
20210127222023 33 181 0.0 2.0 0.00 0.00 0.00 95 992.5
20210127221920 33 181 0.0 2.0 0.00 0.00 0.00 95 992.8
20210127221822 33 181 0.0 2.0 0.00 0.00 0.00 95 992.7
20210127221719 33 181 0.0 2.0 0.00 0.00 0.00 95 992.6
20210127221619 33 181 0.0 4.0 0.00 0.00 0.00 95 992.5
20210127221538 33 181 0.0 4.0 0.00 0.00 0.00 95 992.6
20210127221422 33 181 0.0 4.0 0.00 0.00 0.00 95 992.4
20210127221318 33 181 2.0 4.0 0.00 0.00 0.00 95 992.6
20210127221224 33 181 2.0 4.0 0.00 0.00 0.00 95 992.4
20210127221120 33 181 1.0 4.0 0.00 0.00 0.00 95 992.7
20210127221046 33 181 1.0 4.0 0.00 0.00 0.00 95 992.4
20210127220919 33 181 2.0 4.0 0.00 0.00 0.00 95 992.5
20210127220820 33 181 1.0 4.0 0.00 0.00 0.00 95 992.5
20210127220723 33 181 1.0 4.0 0.00 0.00 0.00 95 992.6
20210127220618 33 181 2.0 4.0 0.00 0.00 0.00 95 992.6
20210127220534 33 181 2.0 4.0 0.00 0.00 0.00 95 992.3
20210127220420 33 181 0.0 4.0 0.00 0.00 0.00 95 992.7
20210127220322 33 181 0.0 4.0 0.00 0.00 0.00 95 992.6
20210127220229 33 185 0.0 4.0 0.00 0.00 0.00 95 992.6
20210127220149 33 187 0.0 4.0 0.00 0.00 0.00 95 992.4
20210127220054 33 188 0.0 4.0 0.00 0.00 0.00 95 992.4
20210127215921 33 189 1.0 4.0 0.00 0.00 0.00 95 992.4
20210127215819 33 193 1.0 4.0 0.00 0.00 0.00 95 992.4
20210127215722 33 203 0.0 2.0 0.00 0.00 0.00 95 992.4
20210127215620 33 203 0.0 2.0 0.00 0.00 0.00 95 992.4
20210127215524 33 203 0.0 2.0 0.00 0.00 0.00 95 992.3
20210127215418 33 203 0.0 2.0 0.00 0.00 0.00 95 992.3
20210127215318 33 203 0.0 2.0 0.00 0.00 0.00 95 992.2
20210127215220 33 203 0.0 2.0 0.00 0.00 0.00 95 992.4
20210127215120 33 203 1.0 2.0 0.00 0.00 0.00 95 992.3
20210127215032 33 203 0.0 2.0 0.00 0.00 0.00 95 992.4
20210127214919 33 202 0.0 2.0 0.00 0.00 0.00 95 992.4
20210127214821 33 202 0.0 2.0 0.00 0.00 0.00 95 992.3
20210127214719 33 202 0.0 2.0 0.00 0.00 0.00 95 992.5
20210127214618 33 202 0.0 2.0 0.00 0.00 0.00 95 992.3
20210127214530 33 202 1.0 2.0 0.00 0.00 0.00 95 992.4
20210127214425 33 202 0.0 2.0 0.00 0.00 0.00 95 992.5
20210127214320 33 202 1.0 2.0 0.00 0.00 0.00 95 992.3
20210127214219 33 202 0.0 2.0 0.00 0.00 0.00 95 992.5
20210127214136 33 202 0.0 2.0 0.00 0.00 0.00 95 992.4
20210127214022 33 202 0.0 2.0 0.00 0.00 0.00 94 992.3
20210127213918 33 203 0.0 2.0 0.00 0.00 0.00 94 992.6
20210127213822 33 202 1.0 2.0 0.00 0.00 0.00 94 992.5
20210127213719 33 203 1.0 2.0 0.00 0.00 0.00 94 992.5
20210127213620 33 202 1.0 4.0 0.00 0.00 0.00 94 992.3
20210127213528 33 203 0.0 4.0 0.00 0.00 0.00 94 992.5
20210127213420 33 203 0.0 4.0 0.00 0.00 0.00 94 992.5
20210127213319 33 203 1.0 4.0 0.00 0.00 0.00 94 992.5
20210127213221 33 203 0.0 4.0 0.00 0.00 0.00 94 992.4
20210127213126 33 203 0.0 4.0 0.00 0.00 0.00 94 992.6
20210127213035 33 203 0.0 4.0 0.00 0.00 0.00 94 992.6
20210127212919 33 203 0.0 4.0 0.00 0.00 0.00 94 992.5
20210127212818 33 203 0.0 4.0 0.00 0.00 0.00 94 992.7
20210127212721 33 203 0.0 4.0 0.00 0.00 0.00 94 992.4
20210127212620 33 203 1.0 4.0 0.00 0.00 0.00 94 992.6
20210127212520 33 203 2.0 4.0 0.00 0.00 0.00 94 992.6
20210127212419 33 203 2.0 4.0 0.00 0.00 0.00 94 992.4
20210127212326 33 203 1.0 4.0 0.00 0.00 0.00 94 992.6
20210127212220 33 202 0.0 4.0 0.00 0.00 0.00 94 992.3
20210127212127 33 202 0.0 4.0 0.00 0.00 0.00 94 992.5
20210127212024 33 203 2.0 4.0 0.00 0.00 0.00 94 992.5
20210127211922 33 203 2.0 4.0 0.00 0.00 0.00 94 992.6
20210127211819 33 203 1.0 2.0 0.00 0.00 0.00 94 992.5
20210127211735 33 203 2.0 2.0 0.00 0.00 0.00 94 992.4
20210127211625 33 203 2.0 2.0 0.00 0.00 0.00 94 992.4
20210127211529 33 203 0.0 2.0 0.00 0.00 0.00 93 992.4
20210127211419 33 203 0.0 2.0 0.00 0.00 0.00 93 992.3
20210127211319 33 203 2.0 2.0 0.00 0.00 0.00 93 992.5
20210127211222 33 202 2.0 4.0 0.00 0.00 0.00 93 992.3
20210127211118 33 202 1.0 4.0 0.00 0.00 0.00 93 992.4
20210127211027 33 201 0.0 4.0 0.00 0.00 0.00 93 992.3
20210127210922 33 198 1.0 4.0 0.00 0.00 0.00 93 992.3
20210127210819 33 191 1.0 4.0 0.00 0.00 0.00 93 992.2
20210127210724 33 187 0.0 4.0 0.00 0.00 0.00 93 992.6
20210127210620 33 182 0.0 4.0 0.00 0.00 0.00 93 992.2
20210127210531 33 181 0.0 4.0 0.00 0.00 0.00 93 992.2
20210127210424 33 177 0.0 4.0 0.00 0.00 0.00 93 992.5
20210127210318 33 175 1.0 4.0 0.00 0.00 0.00 93 992.2
20210127210221 33 168 2.0 4.0 0.00 0.00 0.00 93 992.2
20210127210124 33 165 2.0 4.0 0.00 0.00 0.00 93 992.2
20210127210029 33 159 2.0 4.0 0.00 0.00 0.00 93 992.3
20210127205920 33 157 2.0 4.0 0.00 0.00 0.00 93 992.3
20210127205820 33 157 2.0 4.0 0.00 0.00 0.00 93 992.1
20210127205722 33 158 1.0 4.0 0.00 0.00 0.00 93 992.3
20210127205620 33 158 0.0 4.0 0.00 0.00 0.00 93 992.2
20210127205530 33 158 1.0 4.0 0.00 0.00 0.00 93 992.2
20210127205420 33 158 0.0 4.0 0.00 0.00 0.00 93 992.1
20210127205333 33 158 2.0 4.0 0.00 0.00 0.00 93 992.2
20210127205222 33 158 2.0 4.0 0.00 0.00 0.00 93 992.3
20210127205120 33 157 2.0 4.0 0.00 0.00 0.00 93 992.0
20210127205028 33 158 1.0 4.0 0.00 0.00 0.00 93 992.1
20210127204919 33 158 1.0 4.0 0.00 0.00 0.00 93 992.1
20210127204819 33 155 1.0 4.0 0.00 0.00 0.00 93 992.2
20210127204721 33 153 0.0 4.0 0.00 0.00 0.00 93 992.2
20210127204622 33 151 0.0 4.0 0.00 0.00 0.00 93 992.3
20210127204527 33 150 0.0 4.0 0.00 0.00 0.00 93 992.2
20210127204426 33 149 1.0 4.0 0.00 0.00 0.00 93 992.2
20210127204420 33 150 1.0 4.0 0.00 0.00 0.00 93 992.2
20210127204322 33 148 1.0 4.0 0.00 0.00 0.00 93 992.2
20210127204218 33 147 3.0 4.0 0.00 0.00 0.00 93 992.0
20210127204118 33 145 2.0 4.0 0.00 0.00 0.00 93 992.1
20210127204022 33 142 2.0 4.0 0.00 0.00 0.00 94 992.2
20210127203921 33 136 2.0 4.0 0.00 0.00 0.00 94 992.1
20210127203818 33 131 2.0 4.0 0.00 0.00 0.00 94 992.3
20210127203722 33 128 2.0 4.0 0.00 0.00 0.00 94 992.2
20210127203621 33 127 2.0 4.0 0.00 0.00 0.00 94 992.2
20210127203519 33 127 1.0 4.0 0.00 0.00 0.00 94 992.0
20210127203419 33 127 0.0 4.0 0.00 0.00 0.00 94 992.1
20210127203319 33 128 1.0 4.0 0.00 0.00 0.00 94 992.1
20210127203218 33 128 1.0 4.0 0.00 0.00 0.00 94 992.1
20210127203117 33 128 2.0 4.0 0.00 0.00 0.00 94 992.1
20210127203024 33 128 2.0 4.0 0.00 0.00 0.00 94 992.1
20210127202920 33 131 1.0 4.0 0.00 0.00 0.00 94 991.9
20210127202821 33 133 2.0 4.0 0.00 0.00 0.00 94 992.0
20210127202719 33 135 2.0 4.0 0.00 0.00 0.00 94 991.9
20210127202618 33 135 2.0 4.0 0.00 0.00 0.00 94 992.1
20210127202535 33 135 2.0 4.0 0.00 0.00 0.00 94 992.2
20210127202421 33 135 2.0 4.0 0.00 0.00 0.00 94 992.1
20210127202320 33 135 1.0 4.0 0.00 0.00 0.00 94 992.2
20210127202222 33 135 1.0 4.0 0.00 0.00 0.00 94 992.1
20210127202119 33 135 2.0 4.0 0.00 0.00 0.00 94 992.2
20210127202023 33 135 2.0 4.0 0.00 0.00 0.00 94 991.9
20210127201921 33 135 1.0 4.0 0.00 0.00 0.00 94 992.1
20210127201824 33 134 3.0 4.0 0.00 0.00 0.00 94 992.1
20210127201717 33 131 2.0 4.0 0.00 0.00 0.00 94 992.2
20210127201621 33 130 2.0 4.0 0.00 0.00 0.00 94 992.1
20210127201524 33 128 2.0 4.0 0.00 0.00 0.00 94 992.1
20210127201425 33 126 2.0 4.0 0.00 0.00 0.00 94 992.1
20210127201318 33 124 2.0 4.0 0.00 0.00 0.00 94 992.1
20210127201218 33 122 2.0 4.0 0.00 0.00 0.00 94 992.0
20210127201119 33 120 2.0 4.0 0.00 0.00 0.00 94 991.9
20210127201033 33 117 2.0 4.0 0.00 0.00 0.00 94 992.1
20210127200925 33 114 2.0 4.0 0.00 0.00 0.00 94 992.1
20210127200831 33 112 2.0 4.0 0.00 0.00 0.00 94 991.9
20210127200720 33 112 2.0 2.0 0.00 0.00 0.00 94 991.8
20210127200620 33 112 1.0 2.0 0.00 0.00 0.00 94 992.3
20210127200540 33 112 1.0 2.0 0.00 0.00 0.00 94 992.0
20210127200418 33 112 1.0 4.0 0.00 0.00 0.00 95 991.6
20210127200326 33 112 2.0 4.0 0.00 0.00 0.00 95 991.6
20210127200224 33 112 2.0 4.0 0.00 0.00 0.00 95 991.9
20210127200149 33 112 1.0 4.0 0.00 0.00 0.00 95 991.8
20210127200042 33 112 1.0 4.0 0.00 0.00 0.00 95 991.9
20210127195920 33 112 1.0 4.0 0.00 0.00 0.00 95 992.0
20210127195820 33 112 2.0 4.0 0.00 0.00 0.00 95 992.0
20210127195726 33 112 2.0 4.0 0.00 0.00 0.00 95 991.9
20210127195620 33 112 1.0 4.0 0.00 0.00 0.00 95 991.8
20210127195528 33 112 2.0 4.0 0.00 0.00 0.00 95 992.0
20210127195417 33 112 2.0 4.0 0.00 0.00 0.00 95 992.0
20210127195323 33 112 2.0 4.0 0.00 0.00 0.00 95 992.0
20210127195219 33 112 1.0 4.0 0.00 0.00 0.00 95 992.0
20210127195118 33 112 2.0 4.0 0.00 0.00 0.00 95 992.0
20210127195030 33 112 2.0 4.0 0.00 0.00 0.00 95 991.9
20210127194918 33 112 1.0 4.0 0.00 0.00 0.00 95 992.0
20210127194819 33 112 2.0 2.0 0.00 0.00 0.00 95 991.9
20210127194718 33 111 1.0 2.0 0.00 0.00 0.00 95 992.0
20210127194618 33 111 1.0 2.0 0.00 0.00 0.00 95 991.8
20210127194538 33 112 1.0 2.0 0.00 0.00 0.00 95 992.0
20210127194437 33 112 1.0 2.0 0.00 0.00 0.00 95 992.1
20210127194319 33 112 1.0 2.0 0.00 0.00 0.00 95 991.9
20210127194220 33 112 1.0 2.0 0.00 0.00 0.00 95 992.0
20210127194118 33 112 2.0 2.0 0.00 0.00 0.00 95 992.0
20210127194032 33 112 2.0 2.0 0.00 0.00 0.00 95 992.0
20210127193918 33 112 1.0 2.0 0.00 0.00 0.00 95 992.1
20210127193820 33 112 1.0 2.0 0.00 0.00 0.00 95 992.0
20210127193719 33 112 2.0 2.0 0.00 0.00 0.00 95 992.1
20210127193620 33 112 1.0 2.0 0.00 0.00 0.00 95 991.9
20210127193534 33 112 1.0 2.0 0.00 0.00 0.00 95 991.8
20210127193417 33 112 0.0 2.0 0.00 0.00 0.00 95 992.0
20210127193329 33 112 1.0 2.0 0.00 0.00 0.00 95 992.0
20210127193251 33 112 2.0 2.0 0.00 0.00 0.00 95 992.0
20210127193152 33 111 1.0 2.0 0.00 0.00 0.00 95 991.9
20210127193052 33 111 1.0 2.0 0.00 0.00 0.00 95 991.9
20210127192927 33 112 2.0 2.0 0.00 0.00 0.00 95 992.0
20210127192819 33 111 2.0 2.0 0.00 0.00 0.00 95 991.8
20210127192720 33 111 0.0 2.0 0.00 0.00 0.00 95 992.0
20210127192626 33 111 0.0 2.0 0.00 0.00 0.00 95 991.8
20210127192531 33 111 1.0 2.0 0.00 0.00 0.00 95 991.8
20210127192419 33 111 0.0 2.0 0.00 0.00 0.00 95 991.9
20210127192323 33 111 1.0 2.0 0.00 0.00 0.00 95 991.8
20210127192225 33 111 1.0 2.0 0.00 0.00 0.00 95 992.0
20210127192119 33 111 2.0 2.0 0.00 0.00 0.00 95 992.0
20210127192037 33 111 1.0 2.0 0.00 0.00 0.00 95 992.0
20210127191918 33 111 1.0 2.0 0.00 0.00 0.00 95 992.0
20210127191822 33 111 1.0 2.0 0.00 0.00 0.00 95 992.1
20210127191718 33 111 0.0 2.0 0.00 0.00 0.00 95 992.0
20210127191618 33 111 0.0 2.0 0.00 0.00 0.00 94 991.9
20210127191544 33 112 1.0 4.0 0.00 0.00 0.00 94 992.1
20210127191421 33 112 1.0 4.0 0.00 0.00 0.00 94 991.9
20210127191318 33 112 1.0 4.0 0.00 0.00 0.00 94 991.7
20210127191237 33 112 0.0 4.0 0.00 0.00 0.00 94 991.8
20210127191128 33 112 1.0 4.0 0.00 0.00 0.00 94 991.9
20210127191019 33 112 0.0 4.0 0.00 0.00 0.00 94 991.9
20210127190918 33 112 0.0 4.0 0.00 0.00 0.00 94 991.8
20210127190818 33 112 0.0 4.0 0.00 0.00 0.00 94 991.8
20210127190725 33 112 0.0 4.0 0.00 0.00 0.00 94 991.8
20210127190618 33 112 2.0 4.0 0.00 0.00 0.00 94 991.9
20210127190523 33 112 2.0 4.0 0.00 0.00 0.00 94 991.9
20210127190418 33 112 2.0 4.0 0.00 0.00 0.00 94 991.7
20210127190331 33 112 2.0 4.0 0.00 0.00 0.00 94 991.8
20210127190230 33 112 2.0 4.0 0.00 0.00 0.00 94 991.8
20210127190119 33 112 2.0 4.0 0.00 0.00 0.00 94 991.9
20210127190042 33 112 2.0 4.0 0.00 0.00 0.00 94 991.9
20210127185925 33 112 2.0 4.0 0.00 0.00 0.00 94 991.8
20210127185818 33 112 1.0 2.0 0.00 0.00 0.00 94 991.9
20210127185719 33 112 1.0 2.0 0.00 0.00 0.00 94 992.0
20210127185630 33 112 1.0 2.0 0.00 0.00 0.00 94 991.9
20210127185549 33 112 1.0 2.0 0.00 0.00 0.00 94 991.7
20210127185436 33 112 1.0 2.0 0.00 0.00 0.00 94 992.1
20210127185335 33 112 0.0 2.0 0.00 0.00 0.00 94 991.8
20210127185223 33 112 0.0 2.0 0.00 0.00 0.00 93 991.9
20210127185120 33 112 1.0 2.0 0.00 0.00 0.00 93 991.9
20210127185037 33 112 2.0 2.0 0.00 0.00 0.00 93 991.7
20210127184924 33 112 2.0 2.0 0.00 0.00 0.00 93 991.8
20210127184818 33 112 1.0 2.0 0.00 0.00 0.00 93 991.9
20210127184721 33 112 2.0 2.0 0.00 0.00 0.00 93 992.0
20210127184626 33 112 2.0 2.0 0.00 0.00 0.00 93 992.1
20210127184528 33 112 2.0 2.0 0.00 0.00 0.00 93 991.8
20210127184419 33 111 2.0 2.0 0.00 0.00 0.00 94 991.9
20210127184324 33 111 1.0 2.0 0.00 0.00 0.00 94 992.0
20210127184219 33 111 0.0 2.0 0.00 0.00 0.00 94 991.9
20210127184139 33 112 1.0 2.0 0.00 0.00 0.00 94 992.0
20210127184044 33 112 0.0 2.0 0.00 0.00 0.00 94 991.8
20210127183923 33 112 0.0 2.0 0.00 0.00 0.00 94 992.0
20210127183826 33 111 1.0 2.0 0.00 0.00 0.00 94 992.0
20210127183724 33 111 0.0 2.0 0.00 0.00 0.00 94 992.0
20210127183620 33 111 0.0 2.0 0.00 0.00 0.00 94 991.9
20210127183520 33 112 0.0 2.0 0.00 0.00 0.00 94 991.9
20210127183420 33 111 0.0 2.0 0.00 0.00 0.00 94 991.8
20210127183321 33 111 0.0 2.0 0.00 0.00 0.00 94 991.7
20210127183219 33 111 0.0 2.0 0.00 0.00 0.00 94 991.8
20210127183151 33 111 0.0 2.0 0.00 0.00 0.00 94 991.8
20210127183046 33 112 0.0 2.0 0.00 0.00 0.00 94 991.8
20210127182920 33 112 0.0 2.0 0.00 0.00 0.00 94 991.9
20210127182820 33 112 1.0 2.0 0.00 0.00 0.00 94 991.8
20210127182725 33 112 2.0 2.0 0.00 0.00 0.00 94 991.8
20210127182624 33 112 1.0 2.0 0.00 0.00 0.00 94 991.8
20210127182550 33 112 1.0 2.0 0.00 0.00 0.00 94 991.8
20210127182424 33 112 0.0 2.0 0.00 0.00 0.00 93 991.8
20210127182320 33 112 2.0 2.0 0.00 0.00 0.00 93 991.7
20210127182219 33 112 0.0 2.0 0.00 0.00 0.00 93 991.8
20210127182125 33 112 2.0 4.0 0.00 0.00 0.00 93 991.8
20210127182040 33 112 1.0 4.0 0.00 0.00 0.00 93 991.8
20210127181919 33 115 1.0 4.0 0.00 0.00 0.00 93 991.8
20210127181818 33 117 1.0 4.0 0.00 0.00 0.00 93 991.9
20210127181730 33 119 1.0 4.0 0.00 0.00 0.00 93 991.8
20210127181626 33 121 1.0 4.0 0.00 0.00 0.00 93 991.8
20210127181532 33 123 2.0 4.0 0.00 0.00 0.00 93 991.8
20210127181422 33 123 1.0 4.0 0.00 0.00 0.00 93 991.7
20210127181319 33 122 1.0 4.0 0.00 0.00 0.00 93 991.7
20210127181219 33 123 2.0 4.0 0.00 0.00 0.00 93 991.8
20210127181123 33 123 2.0 4.0 0.00 0.00 0.00 93 991.7
20210127181026 33 124 2.0 4.0 0.00 0.00 0.00 93 991.8
20210127180918 33 121 2.0 4.0 0.00 0.00 0.00 93 991.6
20210127180820 33 119 0.0 4.0 0.00 0.00 0.00 93 991.7
20210127180722 33 116 1.0 4.0 0.00 0.00 0.00 93 991.7
20210127180626 33 114 1.0 4.0 0.00 0.00 0.00 92 991.7
20210127180531 33 112 1.0 4.0 0.00 0.00 0.00 92 991.5
20210127180424 33 112 2.0 4.0 0.00 0.00 0.00 92 991.4
20210127180349 33 112 0.0 4.0 0.00 0.00 0.00 92 991.5
20210127180309 33 112 1.0 4.0 0.00 0.00 0.00 92 991.6
20210127180208 33 112 1.0 4.0 0.00 0.00 0.00 92 991.6
20210127180051 33 112 1.0 4.0 0.00 0.00 0.00 92 991.7
20210127175925 33 112 2.0 4.0 0.00 0.00 0.00 92 991.7
20210127175830 33 112 1.0 4.0 0.00 0.00 0.00 92 991.6
20210127175717 33 112 2.0 4.0 0.00 0.00 0.00 92 991.8
20210127175631 33 112 2.0 4.0 0.00 0.00 0.00 92 991.6
20210127175548 33 112 2.0 4.0 0.00 0.00 0.00 92 991.7
20210127175423 33 111 1.0 2.0 0.00 0.00 0.00 92 991.6
20210127175335 33 112 0.0 2.0 0.00 0.00 0.00 92 991.7
20210127175228 33 111 1.0 2.0 0.00 0.00 0.00 92 991.7
20210127175123 33 112 1.0 2.0 0.00 0.00 0.00 92 991.8
20210127175028 33 111 0.0 2.0 0.00 0.00 0.00 92 991.7
20210127174921 33 112 0.0 2.0 0.00 0.00 0.00 92 991.8
20210127174850 33 112 0.0 2.0 0.00 0.00 0.00 92 991.7
20210127174725 33 112 0.0 2.0 0.00 0.00 0.00 92 991.7
20210127174618 33 112 1.0 2.0 0.00 0.00 0.00 92 991.6
20210127174532 33 112 1.0 2.0 0.00 0.00 0.00 92 991.5
20210127174421 33 111 1.0 2.0 0.00 0.00 0.00 92 991.6
20210127174327 33 112 1.0 2.0 0.00 0.00 0.00 92 991.6
20210127174221 33 112 1.0 2.0 0.00 0.00 0.00 92 991.6
20210127174120 33 112 1.0 2.0 0.00 0.00 0.00 92 991.7
20210127174031 33 111 0.0 2.0 0.00 0.00 0.00 92 991.8
20210127173921 32 111 0.0 2.0 0.00 0.00 0.00 92 991.7
20210127173818 33 111 0.0 2.0 0.00 0.00 0.00 92 991.8
20210127173721 33 111 0.0 2.0 0.00 0.00 0.00 92 991.8
20210127173633 33 111 1.0 2.0 0.00 0.00 0.00 92 991.6
20210127173542 33 111 0.0 2.0 0.00 0.00 0.00 92 991.8
20210127173419 32 111 0.0 2.0 0.00 0.00 0.00 92 991.6
20210127173343 32 111 2.0 2.0 0.00 0.00 0.00 92 991.6
20210127173246 32 111 0.0 2.0 0.00 0.00 0.00 92 991.6
20210127173158 32 112 1.0 2.0 0.00 0.00 0.00 92 991.8
20210127173035 32 111 0.0 2.0 0.00 0.00 0.00 92 991.7
20210127172933 32 112 1.0 2.0 0.00 0.00 0.00 92 991.5
20210127172830 32 112 0.0 2.0 0.00 0.00 0.00 92 991.9
20210127172718 32 112 1.0 2.0 0.00 0.00 0.00 92 991.4
20210127172622 32 112 1.0 2.0 0.00 0.00 0.00 92 991.6
20210127172545 32 112 0.0 2.0 0.00 0.00 0.00 92 991.5
20210127172431 32 112 0.0 2.0 0.00 0.00 0.00 92 991.8
20210127172327 32 111 1.0 2.0 0.00 0.00 0.00 92 991.4
20210127172223 32 111 1.0 4.0 0.00 0.00 0.00 92 991.5
20210127172117 32 111 2.0 4.0 0.00 0.00 0.00 92 991.7
20210127172028 32 111 0.0 4.0 0.00 0.00 0.00 93 991.5
20210127171918 32 111 0.0 4.0 0.00 0.00 0.00 93 991.5
20210127171819 32 112 0.0 4.0 0.00 0.00 0.00 93 991.4
20210127171722 32 112 1.0 4.0 0.00 0.00 0.00 92 991.4
20210127171618 32 112 1.0 4.0 0.00 0.00 0.00 92 991.5
20210127171536 32 112 1.0 4.0 0.00 0.00 0.00 92 991.4
20210127171424 32 112 1.0 4.0 0.00 0.00 0.00 92 991.4
20210127171320 32 111 2.0 4.0 0.00 0.00 0.00 92 991.4
20210127171218 32 111 2.0 4.0 0.00 0.00 0.00 93 991.3
20210127171126 32 111 2.0 4.0 0.00 0.00 0.00 93 991.4
20210127171034 32 111 1.0 4.0 0.00 0.00 0.00 93 991.4
20210127170931 32 111 0.0 4.0 0.00 0.00 0.00 93 991.4
20210127170827 32 111 0.0 4.0 0.00 0.00 0.00 93 991.4
20210127170718 32 112 0.0 4.0 0.00 0.00 0.00 93 991.4
20210127170621 32 112 0.0 4.0 0.00 0.00 0.00 93 991.3
20210127170543 32 112 1.0 4.0 0.00 0.00 0.00 93 991.5
20210127170424 32 112 1.0 4.0 0.00 0.00 0.00 93 991.4
20210127170326 32 112 1.0 4.0 0.00 0.00 0.00 93 991.3
20210127170223 32 112 2.0 4.0 0.00 0.00 0.00 93 991.3
20210127170133 32 112 2.0 4.0 0.00 0.00 0.00 93 991.3
20210127170031 32 111 1.0 4.0 0.00 0.00 0.00 93 991.3
20210127165921 32 112 2.0 4.0 0.00 0.00 0.00 93 991.5
20210127165817 32 112 2.0 4.0 0.00 0.00 0.00 93 991.3
20210127165719 32 112 2.0 4.0 0.00 0.00 0.00 93 991.1
20210127165621 32 111 1.0 4.0 0.00 0.00 0.00 93 991.2
20210127165537 32 112 1.0 4.0 0.00 0.00 0.00 93 991.5
20210127165417 32 112 1.0 4.0 0.00 0.00 0.00 93 991.5
20210127165336 32 111 1.0 4.0 0.00 0.00 0.00 93 991.4
20210127165224 32 111 1.0 4.0 0.00 0.00 0.00 93 991.4
20210127165118 32 111 2.0 4.0 0.00 0.00 0.00 93 991.6
20210127165027 32 111 2.0 4.0 0.00 0.00 0.00 93 991.5
20210127164918 32 111 0.0 4.0 0.00 0.00 0.00 93 991.5
20210127164818 32 111 0.0 4.0 0.00 0.00 0.00 93 991.5
20210127164719 32 112 1.0 4.0 0.00 0.00 0.00 93 991.6
20210127164638 32 113 1.0 4.0 0.00 0.00 0.00 93 991.5
20210127164531 32 115 0.0 4.0 0.00 0.00 0.00 92 991.5
20210127164421 32 118 0.0 4.0 0.00 0.00 0.00 92 991.5
20210127164322 32 121 2.0 4.0 0.00 0.00 0.00 92 991.4
20210127164219 32 124 1.0 4.0 0.00 0.00 0.00 92 991.6
20210127164118 32 127 0.0 4.0 0.00 0.00 0.00 92 991.5
20210127164040 32 127 0.0 4.0 0.00 0.00 0.00 92 991.5
20210127163919 32 128 0.0 4.0 0.00 0.00 0.00 92 991.6
20210127163819 32 130 2.0 4.0 0.00 0.00 0.00 92 991.4
20210127163721 32 132 2.0 4.0 0.00 0.00 0.00 92 991.4
20210127163618 32 135 2.0 4.0 0.00 0.00 0.00 92 991.3
20210127163534 32 135 2.0 4.0 0.00 0.00 0.00 92 991.2
20210127163436 32 134 2.0 4.0 0.00 0.00 0.00 92 991.4
20210127163322 32 133 1.0 4.0 0.00 0.00 0.00 92 991.4
20210127163224 32 133 2.0 4.0 0.00 0.00 0.00 92 991.4
20210127163119 32 131 1.0 4.0 0.00 0.00 0.00 92 991.5
20210127163037 32 129 2.0 4.0 0.00 0.00 0.00 92 991.6
20210127162921 32 127 2.0 4.0 0.00 0.00 0.00 92 991.3
20210127162850 32 125 2.0 4.0 0.00 0.00 0.00 92 991.3
20210127162717 32 122 2.0 4.0 0.00 0.00 0.00 92 991.6
20210127162618 32 119 2.0 4.0 0.00 0.00 0.00 92 991.3
20210127162527 32 114 2.0 4.0 0.00 0.00 0.00 92 991.6
20210127162429 32 112 1.0 4.0 0.00 0.00 0.00 92 991.4
20210127162318 32 108 0.0 4.0 0.00 0.00 0.00 92 991.3
20210127162218 32 108 0.0 4.0 0.00 0.00 0.00 92 991.4
20210127162118 32 108 1.0 4.0 0.00 0.00 0.00 92 991.3
20210127162040 32 108 1.0 4.0 0.00 0.00 0.00 92 991.2
20210127161917 32 108 1.0 4.0 0.00 0.00 0.00 92 991.3
20210127161818 32 108 2.0 4.0 0.00 0.00 0.00 91 991.3
20210127161719 32 108 2.0 4.0 0.00 0.00 0.00 91 991.3
20210127161620 32 108 2.0 4.0 0.00 0.00 0.00 91 991.4
20210127161534 32 108 2.0 4.0 0.00 0.00 0.00 91 991.3
20210127161422 32 108 2.0 4.0 0.00 0.00 0.00 91 991.2
20210127161318 32 113 2.0 4.0 0.00 0.00 0.00 91 991.3
20210127161218 32 118 2.0 4.0 0.00 0.00 0.00 91 991.0
20210127161118 32 121 1.0 4.0 0.00 0.00 0.00 91 991.4
20210127161030 32 123 2.0 4.0 0.00 0.00 0.00 91 991.3
20210127160920 32 126 2.0 4.0 0.00 0.00 0.00 91 991.3
20210127160821 32 128 1.0 4.0 0.00 0.00 0.00 91 991.4
20210127160718 32 127 1.0 4.0 0.00 0.00 0.00 91 991.2
20210127160624 32 127 1.0 4.0 0.00 0.00 0.00 90 991.3
20210127160531 32 128 1.0 4.0 0.00 0.00 0.00 90 991.3
20210127160419 32 129 2.0 4.0 0.00 0.00 0.00 90 991.3
20210127160318 32 129 3.0 4.0 0.00 0.00 0.00 90 991.3
20210127160222 32 129 2.0 4.0 0.00 0.00 0.00 90 991.4
20210127160119 32 129 2.0 4.0 0.00 0.00 0.00 90 991.3
20210127160049 32 127 2.0 4.0 0.00 0.00 0.00 90 991.3
20210127155922 32 127 2.0 4.0 0.00 0.00 0.00 90 991.3
20210127155819 32 127 1.0 4.0 0.00 0.00 0.00 91 991.5
20210127155719 32 129 2.0 4.0 0.00 0.00 0.00 90 991.2
20210127155620 32 131 1.0 4.0 0.00 0.00 0.00 91 991.2
20210127155535 32 130 2.0 6.0 0.00 0.00 0.00 91 991.4
20210127155421 32 131 1.0 6.0 0.00 0.00 0.00 91 991.3
20210127155323 32 132 2.0 6.0 0.00 0.00 0.00 91 991.2
20210127155224 32 132 2.0 6.0 0.00 0.00 0.00 91 991.3
20210127155136 32 132 3.0 6.0 0.00 0.00 0.00 91 991.3
20210127155024 32 134 2.0 6.0 0.00 0.00 0.00 91 991.4
20210127154920 32 134 1.0 6.0 0.00 0.00 0.00 91 990.9
20210127154819 32 134 1.0 6.0 0.00 0.00 0.00 91 991.2
20210127154722 32 134 1.0 6.0 0.00 0.00 0.00 91 991.2
20210127154622 32 134 2.0 6.0 0.00 0.00 0.00 91 991.3
20210127154535 32 137 1.0 6.0 0.00 0.00 0.00 91 991.3
20210127154420 32 134 3.0 6.0 0.00 0.00 0.00 90 991.3
20210127154327 32 129 2.0 7.0 0.00 0.00 0.00 90 991.2
20210127154218 32 126 1.0 7.0 0.00 0.00 0.00 90 991.1
20210127154117 32 121 2.0 8.0 0.00 0.00 0.00 90 991.3
20210127154030 32 119 2.0 8.0 0.00 0.00 0.00 90 991.2
20210127153918 32 115 4.0 8.0 0.00 0.00 0.00 90 991.3
20210127153818 32 114 3.0 8.0 0.00 0.00 0.00 90 991.2
20210127153724 32 115 2.0 8.0 0.00 0.00 0.00 90 991.3
20210127153618 32 115 2.0 8.0 0.00 0.00 0.00 90 991.2
20210127153524 32 114 3.0 8.0 0.00 0.00 0.00 90 991.3
20210127153418 32 114 4.0 8.0 0.00 0.00 0.00 90 991.1
20210127153318 32 115 4.0 8.0 0.00 0.00 0.00 90 991.2
20210127153220 32 118 4.0 8.0 0.00 0.00 0.00 90 991.1
20210127153125 32 122 4.0 8.0 0.00 0.00 0.00 90 991.0
20210127153027 32 126 3.0 7.0 0.00 0.00 0.00 90 991.2
20210127152920 32 129 3.0 7.0 0.00 0.00 0.00 90 991.0
20210127152826 32 130 4.0 8.0 0.00 0.00 0.00 89 991.1
20210127152719 32 129 4.0 8.0 0.00 0.00 0.00 89 991.1
20210127152629 32 126 2.0 8.0 0.00 0.00 0.00 89 991.1
20210127152533 32 121 0.0 8.0 0.00 0.00 0.00 89 991.1
20210127152419 32 119 2.0 9.0 0.00 0.00 0.00 89 991.3
20210127152318 32 118 2.0 9.0 0.00 0.00 0.00 89 991.1
20210127152229 32 115 2.0 9.0 0.00 0.00 0.00 89 991.1
20210127152120 32 115 2.0 9.0 0.00 0.00 0.00 89 991.1
20210127152023 32 115 1.0 9.0 0.00 0.00 0.00 89 991.3
20210127151918 32 115 2.0 9.0 0.00 0.00 0.00 89 991.4
20210127151819 32 113 4.0 9.0 0.00 0.00 0.00 89 991.3
20210127151722 32 110 2.0 9.0 0.00 0.00 0.00 89 991.3
20210127151630 32 111 4.0 9.0 0.00 0.00 0.00 89 991.0
20210127151543 32 115 5.0 9.0 0.00 0.00 0.00 89 991.2
20210127151423 32 117 3.0 9.0 0.00 0.00 0.00 89 991.3
20210127151318 32 114 2.0 9.0 0.00 0.00 0.00 89 991.3
20210127151217 32 110 2.0 9.0 0.00 0.00 0.00 89 991.3
20210127151117 32 107 2.0 9.0 0.00 0.00 0.00 89 991.3
20210127151022 32 106 1.0 9.0 0.00 0.00 0.00 89 991.2
20210127150919 32 104 0.0 9.0 0.00 0.00 0.00 89 991.2
20210127150823 32 104 2.0 9.0 0.00 0.00 0.00 89 991.2
20210127150729 32 102 2.0 9.0 0.00 0.00 0.00 89 991.0
20210127150619 31 100 1.0 9.0 0.00 0.00 0.00 89 991.2
20210127150520 31 100 5.0 9.0 0.00 0.00 0.00 89 991.2
20210127150418 31 100 2.0 8.0 0.00 0.00 0.00 89 991.3
20210127150318 31 101 5.0 8.0 0.00 0.00 0.00 89 991.3
20210127150222 31 106 2.0 8.0 0.00 0.00 0.00 89 991.1
20210127150119 31 109 2.0 8.0 0.00 0.00 0.00 89 991.2
20210127150033 31 109 3.0 8.0 0.00 0.00 0.00 89 991.1
20210127145919 31 110 4.0 8.0 0.00 0.00 0.00 89 991.2
20210127145818 31 111 4.0 8.0 0.00 0.00 0.00 89 991.2
20210127145726 31 117 2.0 8.0 0.00 0.00 0.00 89 991.3
20210127145625 31 117 3.0 8.0 0.00 0.00 0.00 89 991.4
20210127145520 31 114 3.0 9.0 0.00 0.00 0.00 89 991.2
20210127145419 31 114 4.0 9.0 0.00 0.00 0.00 89 991.2
20210127145321 31 116 4.0 9.0 0.00 0.00 0.00 89 991.3
20210127145222 31 114 4.0 9.0 0.00 0.00 0.00 89 991.3
20210127145118 32 111 1.0 9.0 0.00 0.00 0.00 89 991.3
20210127145026 31 110 2.0 9.0 0.00 0.00 0.00 89 991.3
20210127144919 31 113 3.0 9.0 0.00 0.00 0.00 89 991.2
20210127144819 31 113 5.0 9.0 0.00 0.00 0.00 88 991.2
20210127144722 31 109 4.0 11.0 0.00 0.00 0.00 89 991.3
20210127144624 31 112 5.0 11.0 0.00 0.00 0.00 89 991.2
20210127144524 31 120 2.0 11.0 0.00 0.00 0.00 89 991.2
20210127144420 31 120 4.0 11.0 0.00 0.00 0.00 88 991.2
20210127144318 31 120 4.0 11.0 0.00 0.00 0.00 89 991.3
20210127144219 31 119 1.0 11.0 0.00 0.00 0.00 89 991.2
20210127144118 31 120 3.0 11.0 0.00 0.00 0.00 89 991.3
20210127144032 31 120 4.0 11.0 0.00 0.00 0.00 89 991.3
20210127143918 31 117 2.0 11.0 0.00 0.00 0.00 89 991.3
20210127143818 31 113 4.0 11.0 0.00 0.00 0.00 89 991.3
20210127143718 31 110 5.0 11.0 0.00 0.00 0.00 88 991.2
20210127143618 31 109 3.0 9.0 0.00 0.00 0.00 89 991.3
20210127143519 31 107 4.0 9.0 0.00 0.00 0.00 89 991.2
20210127143421 31 108 3.0 9.0 0.00 0.00 0.00 89 991.2
20210127143318 31 107 3.0 9.0 0.00 0.00 0.00 89 991.4
20210127143219 31 107 4.0 11.0 0.00 0.00 0.00 89 991.4
20210127143119 31 105 4.0 11.0 0.00 0.00 0.00 89 991.2
20210127143033 31 106 4.0 11.0 0.00 0.00 0.00 89 991.2
20210127142919 31 107 5.0 11.0 0.00 0.00 0.00 89 991.4
20210127142823 31 110 5.0 11.0 0.00 0.00 0.00 89 991.2
20210127142719 31 118 7.0 11.0 0.00 0.00 0.00 88 991.3
20210127142619 31 120 2.0 11.0 0.00 0.00 0.00 88 991.5
20210127142523 31 118 4.0 11.0 0.00 0.00 0.00 88 991.4
20210127142418 31 116 6.0 11.0 0.00 0.00 0.00 88 991.5
20210127142319 31 118 5.0 11.0 0.00 0.00 0.00 89 991.6
20210127142218 31 121 3.0 11.0 0.00 0.00 0.00 89 991.3
20210127142120 31 125 2.0 11.0 0.00 0.00 0.00 88 991.5
20210127142030 31 125 2.0 11.0 0.00 0.00 0.00 89 991.5
20210127141925 31 125 4.0 11.0 0.00 0.00 0.00 88 991.4
20210127141819 31 129 6.0 11.0 0.00 0.00 0.00 88 991.3
20210127141720 31 129 6.0 11.0 0.00 0.00 0.00 88 991.4
20210127141621 31 126 5.0 11.0 0.00 0.00 0.00 88 991.4
20210127141544 31 126 3.0 11.0 0.00 0.00 0.00 88 991.3
20210127141419 31 126 3.0 11.0 0.00 0.00 0.00 88 991.2
20210127141318 31 125 5.0 11.0 0.00 0.00 0.00 88 991.4
20210127141219 31 122 5.0 11.0 0.00 0.00 0.00 88 991.4
20210127141119 31 118 4.0 11.0 0.00 0.00 0.00 88 991.5
20210127141023 31 120 2.0 11.0 0.00 0.00 0.00 88 991.5
20210127140919 31 122 5.0 11.0 0.00 0.00 0.00 89 991.5
20210127140819 31 120 5.0 11.0 0.00 0.00 0.00 89 991.4
20210127140718 31 114 4.0 11.0 0.00 0.00 0.00 89 991.4
20210127140619 31 114 4.0 11.0 0.00 0.00 0.00 89 991.6
20210127140520 31 113 4.0 11.0 0.00 0.00 0.00 89 991.4
20210127140425 31 112 6.0 11.0 0.00 0.00 0.00 89 991.4
20210127140318 31 111 3.0 11.0 0.00 0.00 0.00 89 991.5
20210127140220 31 110 3.0 11.0 0.00 0.00 0.00 89 991.6
20210127140129 31 110 3.0 11.0 0.00 0.00 0.00 89 991.6
20210127140100 31 106 4.0 11.0 0.00 0.00 0.00 88 991.5
20210127135920 31 105 5.0 11.0 0.00 0.00 0.00 89 991.4
20210127135820 31 105 2.0 11.0 0.00 0.00 0.00 89 991.4
20210127135721 31 106 6.0 11.0 0.00 0.00 0.00 89 991.5
20210127135623 31 105 7.0 11.0 0.00 0.00 0.00 89 991.5
20210127135530 31 104 4.0 11.0 0.00 0.00 0.00 89 991.5
20210127135420 31 104 5.0 11.0 0.00 0.00 0.00 90 991.5
20210127135318 31 103 4.0 11.0 0.00 0.00 0.00 89 991.5
20210127135221 31 99 3.0 11.0 0.00 0.00 0.00 89 991.4
20210127135121 31 102 4.0 11.0 0.00 0.00 0.00 90 991.6
20210127135032 31 103 4.0 11.0 0.00 0.00 0.00 90 991.6
20210127134918 31 102 7.0 11.0 0.00 0.00 0.00 89 991.5
20210127134823 31 100 4.0 11.0 0.00 0.00 0.00 90 991.6
20210127134722 31 97 5.0 9.0 0.00 0.00 0.00 90 991.6
20210127134623 31 96 6.0 9.0 0.00 0.00 0.00 90 991.8
20210127134548 31 101 2.0 9.0 0.00 0.00 0.00 90 991.6
20210127134421 31 103 4.0 9.0 0.00 0.00 0.00 90 991.6
20210127134321 31 103 4.0 11.0 0.00 0.00 0.00 90 991.8
20210127134224 31 106 5.0 11.0 0.00 0.00 0.00 90 991.7
20210127134121 31 104 5.0 11.0 0.00 0.00 0.00 90 991.8
20210127134024 31 100 2.0 11.0 0.00 0.00 0.00 90 991.8
20210127133918 31 98 2.0 11.0 0.00 0.00 0.00 90 991.8
20210127133818 31 97 4.0 11.0 0.00 0.00 0.00 90 991.7
20210127133718 31 97 6.0 11.0 0.00 0.00 0.00 90 991.7
20210127133622 31 96 2.0 11.0 0.00 0.00 0.00 90 991.9
20210127133520 31 90 5.0 11.0 0.00 0.00 0.00 90 991.7
20210127133419 31 89 4.0 11.0 0.00 0.00 0.00 90 991.8
20210127133318 31 90 5.0 9.0 0.00 0.00 0.00 90 991.7
20210127133219 31 93 3.0 9.0 0.00 0.00 0.00 90 991.8
20210127133120 31 95 4.0 9.0 0.00 0.00 0.00 90 991.8
20210127133029 31 97 4.0 9.0 0.00 0.00 0.00 90 991.8
20210127132920 31 100 2.0 9.0 0.00 0.00 0.00 90 991.5
20210127132819 31 102 2.0 9.0 0.00 0.00 0.00 90 991.6
20210127132718 31 103 2.0 9.0 0.00 0.00 0.00 90 991.4
20210127132618 31 103 4.0 9.0 0.00 0.00 0.00 89 992.0
20210127132523 31 107 6.0 9.0 0.00 0.00 0.00 89 991.8
20210127132421 31 111 3.0 9.0 0.00 0.00 0.00 89 991.8
20210127132318 31 112 4.0 8.0 0.00 0.00 0.00 90 992.0
20210127132218 31 108 3.0 7.0 0.00 0.00 0.00 90 991.6
20210127132118 31 106 3.0 7.0 0.00 0.00 0.00 90 991.8
20210127132023 31 106 5.0 7.0 0.00 0.00 0.00 90 991.8
20210127131918 31 102 2.0 6.0 0.00 0.00 0.00 90 991.6
20210127131824 31 104 2.0 8.0 0.00 0.00 0.00 90 991.8
20210127131718 31 105 2.0 8.0 0.00 0.00 0.00 90 991.9
20210127131619 31 106 2.0 8.0 0.00 0.00 0.00 91 992.0
20210127131529 31 103 2.0 8.0 0.00 0.00 0.00 91 991.7
20210127131427 31 103 2.0 8.0 0.00 0.00 0.00 90 992.1
20210127131319 31 102 4.0 8.0 0.00 0.00 0.00 91 992.1
20210127131217 31 102 4.0 8.0 0.00 0.00 0.00 91 991.7
20210127131136 31 104 3.0 8.0 0.00 0.00 0.00 91 991.8
20210127131053 31 106 3.0 8.0 0.00 0.00 0.00 91 991.8
20210127130925 31 107 4.0 8.0 0.00 0.00 0.00 91 992.0
20210127130818 31 104 5.0 8.0 0.00 0.00 0.00 91 992.0
20210127130724 31 103 3.0 7.0 0.00 0.00 0.00 91 992.2
20210127130618 31 101 2.0 7.0 0.00 0.00 0.00 92 992.1
20210127130525 30 102 2.0 7.0 0.00 0.00 0.00 92 992.1
20210127130419 30 100 2.0 7.0 0.00 0.00 0.00 92 992.1
20210127130318 30 98 2.0 7.0 0.00 0.00 0.00 92 992.2
20210127130226 30 96 2.0 7.0 0.00 0.00 0.00 92 992.1
20210127130118 30 94 2.0 7.0 0.00 0.00 0.00 92 992.2
20210127130030 30 92 2.0 7.0 0.00 0.00 0.00 92 992.2
20210127125920 30 91 4.0 7.0 0.00 0.00 0.00 93 992.3
20210127125818 30 91 2.0 6.0 0.00 0.00 0.00 92 992.3
20210127125719 30 91 2.0 6.0 0.00 0.00 0.00 92 992.2
20210127125634 30 93 3.0 6.0 0.00 0.00 0.00 92 992.3
20210127125527 30 95 2.0 6.0 0.00 0.00 0.00 92 992.4
20210127125420 30 97 1.0 6.0 0.00 0.00 0.00 92 992.4
20210127125321 30 101 0.0 6.0 0.00 0.00 0.00 92 992.3
20210127125218 30 101 2.0 6.0 0.00 0.00 0.00 93 992.4
20210127125119 30 101 2.0 6.0 0.00 0.00 0.00 93 992.3
20210127125036 30 100 3.0 6.0 0.00 0.00 0.00 92 992.3
20210127124918 30 97 4.0 6.0 0.00 0.00 0.00 92 992.5
20210127124818 30 98 2.0 6.0 0.00 0.00 0.00 92 992.4
20210127124723 30 97 2.0 6.0 0.00 0.00 0.00 92 992.4
20210127124618 30 94 2.0 6.0 0.00 0.00 0.00 92 992.4
20210127124522 30 91 2.0 6.0 0.00 0.00 0.00 92 992.4
20210127124423 30 92 3.0 6.0 0.00 0.00 0.00 92 992.5
20210127124319 30 90 3.0 7.0 0.00 0.00 0.00 92 992.3
20210127124219 30 89 2.0 7.0 0.00 0.00 0.00 92 992.3
20210127124118 30 92 2.0 7.0 0.00 0.00 0.00 92 992.4
20210127124030 31 92 0.0 7.0 0.00 0.00 0.00 92 992.3
20210127123919 30 91 2.0 7.0 0.00 0.00 0.00 92 992.3
20210127123822 30 90 2.0 7.0 0.00 0.00 0.00 92 992.3
20210127123721 30 92 2.0 7.0 0.00 0.00 0.00 92 992.2
20210127123619 30 96 2.0 8.0 0.00 0.00 0.00 92 992.2
20210127123529 30 98 1.0 8.0 0.00 0.00 0.00 93 992.4
20210127123422 30 96 2.0 8.0 0.00 0.00 0.00 93 992.4
20210127123326 30 98 4.0 8.0 0.00 0.00 0.00 93 992.5
20210127123219 30 98 4.0 8.0 0.00 0.00 0.00 92 992.5
20210127123121 30 95 4.0 8.0 0.00 0.00 0.00 93 992.3
20210127123042 30 98 4.0 8.0 0.00 0.00 0.00 92 992.5
20210127122922 30 101 4.0 8.0 0.00 0.00 0.00 92 992.7
20210127122824 30 103 4.0 8.0 0.00 0.00 0.00 92 992.5
20210127122724 30 104 1.0 8.0 0.00 0.00 0.00 92 992.6
20210127122618 30 103 6.0 8.0 0.00 0.00 0.00 92 992.5
20210127122538 30 101 4.0 8.0 0.00 0.00 0.00 92 992.5
20210127122419 30 102 4.0 7.0 0.00 0.00 0.00 92 992.6
20210127122321 30 101 3.0 7.0 0.00 0.00 0.00 92 992.7
20210127122218 30 100 5.0 9.0 0.00 0.00 0.00 92 992.6
20210127122120 30 99 4.0 9.0 0.00 0.00 0.00 92 992.7
20210127122022 30 104 4.0 9.0 0.00 0.00 0.00 92 992.7
20210127121919 30 102 1.0 9.0 0.00 0.00 0.00 92 992.9
20210127121822 30 101 2.0 9.0 0.00 0.00 0.00 92 992.7
20210127121724 30 97 3.0 9.0 0.00 0.00 0.00 92 992.8
20210127121621 30 96 4.0 9.0 0.00 0.00 0.00 92 992.7
20210127121530 30 96 4.0 9.0 0.00 0.00 0.00 92 993.0
20210127121421 30 96 2.0 9.0 0.00 0.00 0.00 92 992.8
20210127121323 30 96 3.0 9.0 0.00 0.00 0.00 92 992.8
20210127121219 30 97 5.0 9.0 0.00 0.00 0.00 91 992.8
20210127121119 30 98 4.0 9.0 0.00 0.00 0.00 91 992.7
20210127121037 30 91 5.0 8.0 0.00 0.00 0.00 92 992.8
20210127120924 30 91 4.0 8.0 0.00 0.00 0.00 92 992.7
20210127120819 30 90 4.0 8.0 0.00 0.00 0.00 91 992.8
20210127120719 30 91 4.0 8.0 0.00 0.00 0.00 91 992.8
20210127120619 30 89 2.0 6.0 0.00 0.00 0.00 91 992.7
20210127120525 30 90 2.0 6.0 0.00 0.00 0.00 91 992.8
20210127120418 30 91 1.0 6.0 0.00 0.00 0.00 91 992.7
20210127120319 30 90 2.0 6.0 0.00 0.00 0.00 92 992.6
20210127120220 30 90 1.0 6.0 0.00 0.00 0.00 91 992.8
20210127120121 30 87 3.0 6.0 0.00 0.00 0.00 91 992.6
20210127120030 30 83 2.0 4.0 0.00 0.00 0.00 91 992.8
20210127115921 30 82 2.0 4.0 0.00 0.00 0.00 91 992.7
20210127115818 30 82 1.0 4.0 0.00 0.00 0.00 91 992.8
20210127115719 30 83 1.0 4.0 0.00 0.00 0.00 91 993.0
20210127115618 30 86 2.0 6.0 0.00 0.00 0.00 91 992.9
20210127115531 30 86 2.0 6.0 0.00 0.00 0.00 91 992.7
20210127115418 30 87 1.0 6.0 0.00 0.00 0.00 91 993.0
20210127115322 30 91 2.0 6.0 0.00 0.00 0.00 91 992.9
20210127115219 30 94 2.0 6.0 0.00 0.00 0.00 92 993.2
20210127115121 30 97 2.0 6.0 0.00 0.00 0.00 91 993.2
20210127115031 30 103 1.0 6.0 0.00 0.00 0.00 92 993.0
20210127114918 30 107 4.0 6.0 0.00 0.00 0.00 92 993.1
20210127114819 30 110 4.0 6.0 0.00 0.00 0.00 92 992.9
20210127114718 30 113 4.0 6.0 0.00 0.00 0.00 91 993.0
20210127114625 30 115 3.0 6.0 0.00 0.00 0.00 91 992.9
20210127114529 30 117 3.0 6.0 0.00 0.00 0.00 91 993.2
20210127114421 30 116 4.0 7.0 0.00 0.00 0.00 91 993.1
20210127114324 30 114 3.0 7.0 0.00 0.00 0.00 91 993.1
20210127114226 30 112 1.0 7.0 0.00 0.00 0.00 91 993.3
20210127114131 30 109 1.0 7.0 0.00 0.00 0.00 91 993.2
20210127114049 30 106 2.0 7.0 0.00 0.00 0.00 91 993.3
20210127113918 30 104 3.0 7.0 0.00 0.00 0.00 91 993.3
20210127113819 30 104 2.0 7.0 0.00 0.00 0.00 91 993.4
20210127113721 30 102 1.0 7.0 0.00 0.00 0.00 91 993.1
20210127113633 30 102 2.0 7.0 0.00 0.00 0.00 91 993.3
20210127113547 30 103 4.0 7.0 0.00 0.00 0.00 91 993.3
20210127113423 30 103 2.0 6.0 0.00 0.00 0.00 91 993.3
20210127113405 30 104 2.0 6.0 0.00 0.00 0.00 91 993.3
20210127113218 30 106 2.0 6.0 0.00 0.00 0.00 91 993.2
20210127113118 30 105 2.0 6.0 0.00 0.00 0.00 91 993.2
20210127113034 30 98 2.0 7.0 0.00 0.00 0.00 91 993.3
20210127112922 30 91 2.0 7.0 0.00 0.00 0.00 91 993.3
20210127112832 30 89 2.0 7.0 0.00 0.00 0.00 91 993.2
20210127112726 30 89 2.0 7.0 0.00 0.00 0.00 91 993.2
20210127112623 30 88 2.0 7.0 0.00 0.00 0.00 91 993.2
20210127112525 30 84 2.0 7.0 0.00 0.00 0.00 91 993.3
20210127112420 30 81 2.0 7.0 0.00 0.00 0.00 92 993.3
20210127112324 30 79 2.0 7.0 0.00 0.00 0.00 92 993.1
20210127112222 30 75 1.0 7.0 0.00 0.00 0.00 91 993.2
20210127112119 30 78 2.0 7.0 0.00 0.00 0.00 91 993.4
20210127112042 30 84 4.0 7.0 0.00 0.00 0.00 91 993.3
20210127111918 30 90 2.0 6.0 0.00 0.00 0.00 91 993.1
20210127111830 30 92 2.0 6.0 0.00 0.00 0.00 92 993.2
20210127111718 30 93 2.0 6.0 0.00 0.00 0.00 92 993.4
20210127111622 30 94 2.0 6.0 0.00 0.00 0.00 92 993.4
20210127111538 30 96 2.0 6.0 0.00 0.00 0.00 92 993.5
20210127111432 30 97 1.0 6.0 0.00 0.00 0.00 92 993.5
20210127111318 30 97 1.0 6.0 0.00 0.00 0.00 92 993.3
20210127111224 30 97 2.0 6.0 0.00 0.00 0.00 92 993.5
20210127111122 30 96 3.0 6.0 0.00 0.00 0.00 92 993.4
20210127111041 30 94 1.0 4.0 0.00 0.00 0.00 92 993.4
20210127110919 30 89 0.0 4.0 0.00 0.00 0.00 92 993.5
20210127110819 29 85 2.0 4.0 0.00 0.00 0.00 92 993.4
20210127110719 29 84 2.0 6.0 0.00 0.00 0.00 92 993.5
20210127110622 29 82 4.0 6.0 0.00 0.00 0.00 92 993.3
20210127110529 29 80 3.0 6.0 0.00 0.00 0.00 92 993.4
20210127110424 30 78 2.0 6.0 0.00 0.00 0.00 92 993.4
20210127110322 30 78 0.0 6.0 0.00 0.00 0.00 93 993.4
20210127110221 30 80 2.0 6.0 0.00 0.00 0.00 93 993.4
20210127110119 30 80 1.0 6.0 0.00 0.00 0.00 93 993.3
20210127110033 29 81 1.0 6.0 0.00 0.00 0.00 92 993.2
20210127105924 29 83 2.0 6.0 0.00 0.00 0.00 92 993.4
20210127105818 29 84 3.0 6.0 0.00 0.00 0.00 92 993.2
20210127105727 29 82 2.0 6.0 0.00 0.00 0.00 92 993.5
20210127105621 29 83 4.0 6.0 0.00 0.00 0.00 92 993.3
20210127105525 29 83 0.0 6.0 0.00 0.00 0.00 92 993.4
20210127105428 29 84 2.0 6.0 0.00 0.00 0.00 93 993.5
20210127105326 29 82 2.0 6.0 0.00 0.00 0.00 93 993.5
20210127105244 29 80 2.0 6.0 0.00 0.00 0.00 93 993.5
20210127105228 29 78 3.0 7.0 0.00 0.00 0.00 93 993.5
20210127105113 29 78 3.0 7.0 0.00 0.00 0.00 93 993.6
20210127104922 29 78 1.0 7.0 0.00 0.00 0.00 93 993.3
20210127104854 29 79 0.0 7.0 0.00 0.00 0.00 93 993.3
20210127104719 29 79 1.0 7.0 0.00 0.00 0.00 93 993.5
20210127104625 29 80 2.0 7.0 0.00 0.00 0.00 93 993.5
20210127104529 29 81 1.0 7.0 0.00 0.00 0.00 93 993.5
20210127104430 29 81 2.0 7.0 0.00 0.00 0.00 93 993.4
20210127104327 29 79 3.0 7.0 0.00 0.00 0.00 92 993.6
20210127104218 29 81 3.0 7.0 0.00 0.00 0.00 92 993.5
20210127104122 29 84 4.0 7.0 0.00 0.00 0.00 92 993.4
20210127104025 29 86 2.0 6.0 0.00 0.00 0.00 93 993.5
20210127103918 29 89 3.0 6.0 0.00 0.00 0.00 93 993.4
20210127103821 29 89 1.0 6.0 0.00 0.00 0.00 93 993.5
20210127103719 29 90 1.0 6.0 0.00 0.00 0.00 93 993.5
20210127103619 29 90 1.0 6.0 0.00 0.00 0.00 93 993.3
20210127103526 29 90 2.0 6.0 0.00 0.00 0.00 93 993.6
20210127103418 29 90 2.0 6.0 0.00 0.00 0.00 93 993.5
20210127103324 29 94 4.0 6.0 0.00 0.00 0.00 93 993.4
20210127103232 29 96 2.0 4.0 0.00 0.00 0.00 93 993.5
20210127103126 29 94 2.0 4.0 0.00 0.00 0.00 93 993.5
20210127103029 29 94 2.0 4.0 0.00 0.00 0.00 93 993.7
20210127102920 29 90 3.0 4.0 0.00 0.00 0.00 93 993.4
20210127102818 29 87 2.0 4.0 0.00 0.00 0.00 93 993.5
20210127102721 29 87 2.0 4.0 0.00 0.00 0.00 93 993.5
20210127102619 29 87 2.0 4.0 0.00 0.00 0.00 93 993.6
20210127102525 29 88 1.0 6.0 0.00 0.00 0.00 94 993.5
20210127102422 29 86 2.0 6.0 0.00 0.00 0.00 93 993.5
20210127102319 29 85 2.0 6.0 0.00 0.00 0.00 93 993.7
20210127102221 29 88 2.0 6.0 0.00 0.00 0.00 93 993.7
20210127102124 29 88 2.0 6.0 0.00 0.00 0.00 93 993.5
20210127102047 29 88 2.0 6.0 0.00 0.00 0.00 93 993.4
20210127101926 29 89 2.0 6.0 0.00 0.00 0.00 93 993.2
20210127101819 29 90 2.0 6.0 0.00 0.00 0.00 93 993.4
20210127101719 29 90 1.0 6.0 0.00 0.00 0.00 93 993.6
20210127101619 29 90 2.0 6.0 0.00 0.00 0.00 93 993.5
20210127101543 29 90 2.0 4.0 0.00 0.00 0.00 93 993.5
20210127101427 29 92 2.0 4.0 0.00 0.00 0.00 94 993.5
20210127101319 29 93 2.0 4.0 0.00 0.00 0.00 94 993.5
20210127101219 29 89 3.0 4.0 0.00 0.00 0.00 94 993.5
20210127101141 29 86 2.0 4.0 0.00 0.00 0.00 94 993.5
20210127101026 29 83 3.0 4.0 0.00 0.00 0.00 94 993.6
20210127100918 29 82 2.0 4.0 0.00 0.00 0.00 94 993.7
20210127100820 29 83 0.0 4.0 0.00 0.00 0.00 94 993.7
20210127100719 29 85 1.0 4.0 0.00 0.00 0.00 94 993.8
20210127100619 29 85 2.0 4.0 0.00 0.00 0.00 94 993.7
20210127100529 28 83 3.0 4.0 0.00 0.00 0.00 94 993.8
20210127100420 28 81 3.0 4.0 0.00 0.00 0.00 94 993.6
20210127100322 28 82 2.0 6.0 0.00 0.00 0.00 94 993.9
20210127100222 28 82 2.0 6.0 0.00 0.00 0.00 94 993.7
20210127100118 28 83 2.0 6.0 0.00 0.00 0.00 94 993.5
20210127100029 28 84 2.0 6.0 0.00 0.00 0.00 94 993.7
20210127095922 28 84 3.0 6.0 0.00 0.00 0.00 93 993.9
20210127095821 28 85 2.0 6.0 0.00 0.00 0.00 93 993.9
20210127095719 28 83 2.0 6.0 0.00 0.00 0.00 93 993.7
20210127095619 28 81 2.0 7.0 0.00 0.00 0.00 93 993.8
20210127095521 28 80 2.0 7.0 0.00 0.00 0.00 93 993.8
20210127095420 28 81 3.0 8.0 0.00 0.00 0.00 93 993.9
20210127095319 28 81 4.0 8.0 0.00 0.00 0.00 93 993.8
20210127095222 28 82 3.0 8.0 0.00 0.00 0.00 93 993.7
20210127095155 28 83 2.0 8.0 0.00 0.00 0.00 93 994.0
20210127095024 28 84 2.0 8.0 0.00 0.00 0.00 93 993.9
20210127094918 28 84 1.0 8.0 0.00 0.00 0.00 93 993.8
20210127094818 28 84 3.0 8.0 0.00 0.00 0.00 93 993.6
20210127094718 28 83 3.0 8.0 0.00 0.00 0.00 93 993.9
20210127094620 28 86 3.0 8.0 0.00 0.00 0.00 93 993.8
20210127094519 28 89 3.0 8.0 0.00 0.00 0.00 93 993.8
20210127094420 28 90 4.0 8.0 0.00 0.00 0.00 93 994.0
20210127094318 28 90 3.0 6.0 0.00 0.00 0.00 93 993.9
20210127094249 28 90 2.0 4.0 0.00 0.00 0.00 94 993.9
20210127094119 28 92 0.0 4.0 0.00 0.00 0.00 94 994.0
20210127094027 28 94 2.0 4.0 0.00 0.00 0.00 94 993.9
20210127093919 28 96 2.0 4.0 0.00 0.00 0.00 94 993.9
20210127093819 28 96 1.0 4.0 0.00 0.00 0.00 94 994.0
20210127093719 28 95 1.0 4.0 0.00 0.00 0.00 94 994.1
20210127093620 28 95 0.0 4.0 0.00 0.00 0.00 94 994.0
20210127093519 28 96 1.0 4.0 0.00 0.00 0.00 94 994.2
20210127093419 28 96 2.0 6.0 0.00 0.00 0.00 94 994.1
20210127093328 28 96 3.0 6.0 0.00 0.00 0.00 94 994.0
20210127093220 28 96 2.0 6.0 0.00 0.00 0.00 94 994.0
20210127093133 28 99 3.0 6.0 0.00 0.00 0.00 93 994.0
20210127093051 28 98 3.0 6.0 0.00 0.00 0.00 93 994.1
20210127092920 28 96 3.0 6.0 0.00 0.00 0.00 93 994.1
20210127092819 28 97 2.0 6.0 0.00 0.00 0.00 93 994.0
20210127092734 28 98 2.0 6.0 0.00 0.00 0.00 93 994.0
20210127092619 28 100 3.0 6.0 0.00 0.00 0.00 93 994.2
20210127092542 28 102 3.0 6.0 0.00 0.00 0.00 93 994.1
20210127092421 28 104 3.0 6.0 0.00 0.00 0.00 93 994.0
20210127092322 28 102 3.0 7.0 0.00 0.00 0.00 93 993.9
20210127092219 28 100 2.0 7.0 0.00 0.00 0.00 93 994.1
20210127092118 28 95 4.0 7.0 0.00 0.00 0.00 93 994.0
20210127092025 29 91 3.0 7.0 0.00 0.00 0.00 93 994.2
20210127091918 29 91 1.0 7.0 0.00 0.00 0.00 93 994.0
20210127091819 28 91 2.0 8.0 0.00 0.00 0.00 93 994.2
20210127091724 29 89 4.0 8.0 0.00 0.00 0.00 92 994.0
20210127091629 29 86 4.0 8.0 0.00 0.00 0.00 92 994.0
20210127091522 29 84 4.0 8.0 0.00 0.00 0.00 92 994.3
20210127091422 29 82 4.0 8.0 0.00 0.00 0.00 92 994.3
20210127091319 29 83 4.0 8.0 0.00 0.00 0.00 92 994.1
20210127091219 29 86 4.0 8.0 0.00 0.00 0.00 92 994.1
20210127091119 29 88 3.0 8.0 0.00 0.00 0.00 92 994.2
20210127091027 29 90 4.0 8.0 0.00 0.00 0.00 92 994.0
20210127090920 29 90 4.0 8.0 0.00 0.00 0.00 93 994.1
20210127090823 29 91 6.0 8.0 0.00 0.00 0.00 93 994.1
20210127090729 29 96 4.0 8.0 0.00 0.00 0.00 93 994.2
20210127090618 29 102 2.0 6.0 0.00 0.00 0.00 93 994.1
20210127090520 29 104 2.0 6.0 0.00 0.00 0.00 93 994.2
20210127090422 29 104 2.0 6.0 0.00 0.00 0.00 93 994.0
20210127090319 29 101 2.0 6.0 0.00 0.00 0.00 93 994.2
20210127090220 29 100 3.0 6.0 0.00 0.00 0.00 93 994.1
20210127090120 29 101 2.0 4.0 0.00 0.00 0.00 93 994.1
20210127090034 29 100 2.0 4.0 0.00 0.00 0.00 93 994.0
20210127085920 29 100 2.0 4.0 0.00 0.00 0.00 93 994.3
20210127085820 29 100 2.0 4.0 0.00 0.00 0.00 93 994.2
20210127085722 29 100 2.0 4.0 0.00 0.00 0.00 93 994.1
20210127085618 29 99 2.0 4.0 0.00 0.00 0.00 93 994.2
20210127085535 29 96 3.0 4.0 0.00 0.00 0.00 93 994.2
20210127085427 29 95 3.0 4.0 0.00 0.00 0.00 93 994.2
20210127085321 29 95 0.0 4.0 0.00 0.00 0.00 93 994.1
20210127085219 29 97 1.0 4.0 0.00 0.00 0.00 93 994.3
20210127085122 29 99 3.0 4.0 0.00 0.00 0.00 93 994.2
20210127085020 29 101 2.0 4.0 0.00 0.00 0.00 93 994.4
20210127084919 29 103 1.0 4.0 0.00 0.00 0.00 93 994.1
20210127084820 29 103 2.0 4.0 0.00 0.00 0.00 93 994.3
20210127084719 29 103 3.0 4.0 0.00 0.00 0.00 93 994.4
20210127084623 29 105 2.0 4.0 0.00 0.00 0.00 93 994.3
20210127084530 29 109 4.0 4.0 0.00 0.00 0.00 93 994.4
20210127084420 29 114 2.0 4.0 0.00 0.00 0.00 93 994.1
20210127084318 29 119 2.0 4.0 0.00 0.00 0.00 93 994.1
20210127084223 29 120 2.0 4.0 0.00 0.00 0.00 93 994.3
20210127084125 29 120 2.0 4.0 0.00 0.00 0.00 93 994.2
20210127084037 29 120 1.0 4.0 0.00 0.00 0.00 93 994.3
20210127083918 29 120 1.0 4.0 0.00 0.00 0.00 93 994.3
20210127083819 29 120 2.0 4.0 0.00 0.00 0.00 92 994.3
20210127083718 29 122 2.0 4.0 0.00 0.00 0.00 92 994.4
20210127083707 29 124 2.0 4.0 0.00 0.00 0.00 92 994.3
20210127083630 29 124 1.0 4.0 0.00 0.00 0.00 92 994.2
20210127083457 29 124 2.0 4.0 0.00 0.00 0.00 92 994.2
20210127083408 29 125 2.0 4.0 0.00 0.00 0.00 92 994.3
20210127083220 29 127 1.0 4.0 0.00 0.00 0.00 92 994.3
20210127083119 29 128 1.0 4.0 0.00 0.00 0.00 92 994.3
20210127083024 29 130 1.0 4.0 0.00 0.00 0.00 92 994.4
20210127082921 29 132 2.0 4.0 0.00 0.00 0.00 92 994.3
20210127082820 29 134 2.0 6.0 0.00 0.00 0.00 92 994.3
20210127082719 29 132 2.0 6.0 0.00 0.00 0.00 92 994.3
20210127082626 28 131 2.0 6.0 0.00 0.00 0.00 92 994.2
20210127082522 28 131 2.0 6.0 0.00 0.00 0.00 92 994.4
20210127082419 28 131 3.0 6.0 0.00 0.00 0.00 92 994.3
20210127082318 28 131 1.0 6.0 0.00 0.00 0.00 92 994.3
20210127082219 28 130 2.0 6.0 0.00 0.00 0.00 92 994.2
20210127082130 28 128 2.0 6.0 0.00 0.00 0.00 92 994.3
20210127082029 28 126 2.0 6.0 0.00 0.00 0.00 92 994.4
20210127081920 28 124 3.0 6.0 0.00 0.00 0.00 92 994.3
20210127081820 28 121 3.0 4.0 0.00 0.00 0.00 92 994.4
20210127081718 28 121 2.0 6.0 0.00 0.00 0.00 92 994.4
20210127081619 28 121 3.0 6.0 0.00 0.00 0.00 91 994.2
20210127081532 28 120 2.0 6.0 0.00 0.00 0.00 92 994.2
20210127081459 28 121 2.0 6.0 0.00 0.00 0.00 91 994.2
20210127081318 28 120 3.0 6.0 0.00 0.00 0.00 91 994.1
20210127081225 29 119 2.0 6.0 0.00 0.00 0.00 91 994.3
20210127081120 28 120 2.0 6.0 0.00 0.00 0.00 91 994.3
20210127081025 29 120 2.0 6.0 0.00 0.00 0.00 91 994.4
20210127080921 29 122 2.0 6.0 0.00 0.00 0.00 91 994.3
20210127080821 28 122 2.0 6.0 0.00 0.00 0.00 91 994.3
20210127080723 28 124 3.0 6.0 0.00 0.00 0.00 91 994.1
20210127080622 28 125 2.0 6.0 0.00 0.00 0.00 91 994.1
20210127080534 28 124 2.0 6.0 0.00 0.00 0.00 91 994.0
20210127080418 28 121 2.0 6.0 0.00 0.00 0.00 91 994.1
20210127080323 28 122 2.0 6.0 0.00 0.00 0.00 91 994.1
20210127080225 28 123 2.0 6.0 0.00 0.00 0.00 91 994.2
20210127080125 28 124 3.0 6.0 0.00 0.00 0.00 91 994.1
20210127080040 28 124 2.0 6.0 0.00 0.00 0.00 91 994.1
20210127075921 29 122 2.0 6.0 0.00 0.00 0.00 91 994.1
20210127075820 28 122 3.0 4.0 0.00 0.00 0.00 91 994.3
20210127075721 28 125 3.0 4.0 0.00 0.00 0.00 91 994.3
20210127075619 28 124 3.0 4.0 0.00 0.00 0.00 91 994.2
20210127075523 28 123 1.0 4.0 0.00 0.00 0.00 91 994.1
20210127075420 28 126 2.0 4.0 0.00 0.00 0.00 91 994.2
20210127075319 28 126 1.0 4.0 0.00 0.00 0.00 91 994.2
20210127075219 29 126 2.0 4.0 0.00 0.00 0.00 91 994.3
20210127075123 29 125 2.0 4.0 0.00 0.00 0.00 91 994.1
20210127075046 29 124 1.0 4.0 0.00 0.00 0.00 91 994.4
20210127074920 29 123 3.0 4.0 0.00 0.00 0.00 90 994.3
20210127074819 29 125 3.0 4.0 0.00 0.00 0.00 90 994.3
20210127074730 29 125 3.0 6.0 0.00 0.00 0.00 90 994.3
20210127074619 29 123 3.0 6.0 0.00 0.00 0.00 90 994.3
20210127074531 29 124 2.0 6.0 0.00 0.00 0.00 90 994.4
20210127074421 29 123 2.0 6.0 0.00 0.00 0.00 90 994.2
20210127074321 29 124 2.0 6.0 0.00 0.00 0.00 90 994.3
20210127074221 29 125 2.0 6.0 0.00 0.00 0.00 90 994.3
20210127074119 29 126 3.0 6.0 0.00 0.00 0.00 89 994.3
20210127074033 29 128 3.0 6.0 0.00 0.00 0.00 89 994.3
20210127073919 29 131 2.0 6.0 0.00 0.00 0.00 89 994.4
20210127073819 29 131 3.0 6.0 0.00 0.00 0.00 89 994.3
20210127073720 29 133 3.0 6.0 0.00 0.00 0.00 88 994.2
20210127073618 29 132 3.0 6.0 0.00 0.00 0.00 88 994.1
20210127073540 29 132 2.0 6.0 0.00 0.00 0.00 88 994.1
20210127073422 29 131 2.0 6.0 0.00 0.00 0.00 88 994.0
20210127073321 29 134 3.0 7.0 0.00 0.00 0.00 87 993.9
20210127073227 29 134 4.0 7.0 0.00 0.00 0.00 87 994.0
20210127073121 29 135 2.0 7.0 0.00 0.00 0.00 87 994.1
20210127073024 29 135 2.0 7.0 0.00 0.00 0.00 86 994.0
20210127072922 29 135 3.0 7.0 0.00 0.00 0.00 86 994.0
20210127072819 29 136 2.0 7.0 0.00 0.00 0.00 86 994.0
20210127072730 29 136 3.0 7.0 0.00 0.00 0.00 85 994.1
20210127072623 29 139 3.0 7.0 0.00 0.00 0.00 85 994.2
20210127072602 29 141 2.0 7.0 0.00 0.00 0.00 85 994.3
20210127072420 29 144 3.0 7.0 0.00 0.00 0.00 85 993.9
20210127072324 29 141 2.0 6.0 0.00 0.00 0.00 85 994.3
20210127072222 29 140 3.0 6.0 0.00 0.00 0.00 85 993.9
20210127072124 29 139 2.0 6.0 0.00 0.00 0.00 85 994.0
20210127072021 29 138 1.0 6.0 0.00 0.00 0.00 85 993.9
20210127071919 29 133 2.0 6.0 0.00 0.00 0.00 84 994.1
20210127071822 29 131 2.0 6.0 0.00 0.00 0.00 84 994.0
20210127071718 29 129 2.0 6.0 0.00 0.00 0.00 84 993.9
20210127071619 29 127 2.0 6.0 0.00 0.00 0.00 84 994.0
20210127071537 29 125 3.0 6.0 0.00 0.00 0.00 84 994.0
20210127071424 29 125 2.0 6.0 0.00 0.00 0.00 84 993.8
20210127071319 29 124 2.0 6.0 0.00 0.00 0.00 84 993.9
20210127071224 29 123 2.0 6.0 0.00 0.00 0.00 84 993.8
20210127071118 29 124 2.0 6.0 0.00 0.00 0.00 84 994.0
20210127071018 29 126 3.0 6.0 0.00 0.00 0.00 84 993.8
20210127070921 29 129 3.0 6.0 0.00 0.00 0.00 84 993.8
20210127070822 29 128 2.0 4.0 0.00 0.00 0.00 84 993.8
20210127070721 29 127 2.0 4.0 0.00 0.00 0.00 84 993.8
20210127070621 29 127 1.0 6.0 0.00 0.00 0.00 83 993.8
20210127070530 29 125 1.0 6.0 0.00 0.00 0.00 83 993.7
20210127070424 29 126 1.0 7.0 0.00 0.00 0.00 83 993.7
20210127070321 29 123 1.0 7.0 0.00 0.00 0.00 83 993.8
20210127070227 29 121 1.0 7.0 0.00 0.00 0.00 83 993.8
20210127070123 29 123 1.0 7.0 0.00 0.00 0.00 83 993.8
20210127070028 29 123 1.0 7.0 0.00 0.00 0.00 83 993.8
20210127065921 29 124 3.0 7.0 0.00 0.00 0.00 83 993.9
20210127065820 29 125 2.0 7.0 0.00 0.00 0.00 83 993.7
20210127065724 29 126 3.0 7.0 0.00 0.00 0.00 83 993.8
20210127065621 29 128 3.0 7.0 0.00 0.00 0.00 83 994.0
20210127065523 29 130 5.0 7.0 0.00 0.00 0.00 83 993.8
20210127065418 29 129 1.0 8.0 0.00 0.00 0.00 83 993.8
20210127065323 29 135 2.0 8.0 0.00 0.00 0.00 83 993.9
20210127065219 29 135 3.0 9.0 0.00 0.00 0.00 83 993.9
20210127065120 29 132 3.0 9.0 0.00 0.00 0.00 83 993.9
20210127065020 29 132 2.0 9.0 0.00 0.00 0.00 83 994.0
20210127064919 29 130 2.0 9.0 0.00 0.00 0.00 83 993.9
20210127064818 29 127 2.0 9.0 0.00 0.00 0.00 83 994.1
20210127064722 29 127 3.0 9.0 0.00 0.00 0.00 83 994.0
20210127064629 29 128 4.0 9.0 0.00 0.00 0.00 83 994.0
20210127064530 29 127 4.0 9.0 0.00 0.00 0.00 83 994.1
20210127064428 29 126 5.0 9.0 0.00 0.00 0.00 83 993.9
20210127064319 29 122 6.0 9.0 0.00 0.00 0.00 83 993.9
20210127064219 29 127 6.0 9.0 0.00 0.00 0.00 83 993.8
20210127064132 29 129 4.0 8.0 0.00 0.00 0.00 83 994.0
20210127064024 29 129 4.0 8.0 0.00 0.00 0.00 83 994.0
20210127063919 29 133 4.0 8.0 0.00 0.00 0.00 83 993.8
20210127063818 29 139 2.0 7.0 0.00 0.00 0.00 83 993.9
20210127063721 29 142 2.0 7.0 0.00 0.00 0.00 83 993.7
20210127063619 29 140 3.0 7.0 0.00 0.00 0.00 83 993.8
20210127063525 29 143 1.0 7.0 0.00 0.00 0.00 83 993.8
20210127063419 29 144 3.0 7.0 0.00 0.00 0.00 83 993.6
20210127063318 29 148 4.0 7.0 0.00 0.00 0.00 83 993.8
20210127063220 29 143 4.0 7.0 0.00 0.00 0.00 83 993.7
20210127063122 29 139 3.0 7.0 0.00 0.00 0.00 83 993.8
20210127063027 29 137 4.0 6.0 0.00 0.00 0.00 84 994.0
20210127062924 29 135 2.0 6.0 0.00 0.00 0.00 84 993.9
20210127062819 29 126 2.0 6.0 0.00 0.00 0.00 84 993.8
20210127062723 29 122 0.0 4.0 0.00 0.00 0.00 84 993.8
20210127062626 29 123 0.0 4.0 0.00 0.00 0.00 84 993.9
20210127062532 29 123 1.0 4.0 0.00 0.00 0.00 84 993.7
20210127062420 29 122 2.0 4.0 0.00 0.00 0.00 84 993.7
20210127062323 29 121 3.0 4.0 0.00 0.00 0.00 84 993.8
20210127062219 29 123 3.0 4.0 0.00 0.00 0.00 84 993.8
20210127062121 29 127 2.0 7.0 0.00 0.00 0.00 84 993.6
20210127062028 29 130 2.0 7.0 0.00 0.00 0.00 84 993.8
20210127061921 29 134 2.0 7.0 0.00 0.00 0.00 84 993.9
20210127061819 29 140 2.0 7.0 0.00 0.00 0.00 84 993.8
20210127061719 29 142 2.0 7.0 0.00 0.00 0.00 84 993.6
20210127061620 29 144 1.0 7.0 0.00 0.00 0.00 84 993.7
20210127061522 29 145 2.0 7.0 0.00 0.00 0.00 84 994.0
20210127061423 29 146 2.0 7.0 0.00 0.00 0.00 84 993.8
20210127061318 29 148 2.0 7.0 0.00 0.00 0.00 84 994.1
20210127061219 29 150 3.0 7.0 0.00 0.00 0.00 84 994.0
20210127061122 29 154 4.0 7.0 0.00 0.00 0.00 84 994.2
20210127061027 29 157 1.0 7.0 0.00 0.00 0.00 84 994.0
20210127060919 29 158 1.0 7.0 0.00 0.00 0.00 84 994.1
20210127060819 29 158 3.0 7.0 0.00 0.00 0.00 84 994.0
20210127060719 29 160 2.0 4.0 0.00 0.00 0.00 84 994.2
20210127060618 29 163 1.0 2.0 0.00 0.00 0.00 84 994.0
20210127060523 29 168 1.0 2.0 0.00 0.00 0.00 84 994.1
20210127060419 29 168 0.0 2.0 0.00 0.00 0.00 84 993.9
20210127060320 29 172 1.0 4.0 0.00 0.00 0.00 84 994.0
20210127060219 29 175 0.0 4.0 0.00 0.00 0.00 84 994.1
20210127060127 29 177 0.0 4.0 0.00 0.00 0.00 84 993.9
20210127060026 29 177 0.0 4.0 0.00 0.00 0.00 84 993.9
20210127055920 29 176 0.0 4.0 0.00 0.00 0.00 84 994.1
20210127055818 29 174 0.0 4.0 0.00 0.00 0.00 85 994.0
20210127055721 29 173 0.0 4.0 0.00 0.00 0.00 84 993.8
20210127055631 29 172 1.0 4.0 0.00 0.00 0.00 84 994.0
20210127055519 29 170 2.0 4.0 0.00 0.00 0.00 84 994.0
20210127055418 29 168 2.0 6.0 0.00 0.00 0.00 84 994.1
20210127055319 29 164 2.0 6.0 0.00 0.00 0.00 84 994.0
20210127055219 29 162 0.0 6.0 0.00 0.00 0.00 84 994.1
20210127055119 29 160 0.0 6.0 0.00 0.00 0.00 84 993.9
20210127055036 29 159 1.0 6.0 0.00 0.00 0.00 84 993.9
20210127054918 29 157 1.0 6.0 0.00 0.00 0.00 84 993.9
20210127054819 29 158 2.0 6.0 0.00 0.00 0.00 84 994.0
20210127054719 29 157 0.0 6.0 0.00 0.00 0.00 84 994.1